GFSCGP_sfc_thetae_075.txt.gz
Theta_e
292 286 283 285 287 290 290 288 286 288 294 293 292 292 294 296 296 295 298 300 297 307 313 314 318 319 319 320 319 319 318 318 320 321 321 318 319 321 323 325 327 324 322 321
288 285 290 291 290 290 290 287 287 291 295 295 290 290 295 297 296 298 299 300 298 305 309 315 316 318 318 319 319 319 318 318 320 320 320 320 320 321 322 324 324 326 324 321
286 289 295 292 290 289 289 287 288 289 294 295 291 290 292 297 298 299 299 300 301 308 309 314 315 316 318 317 317 318 317 318 319 319 319 318 319 320 319 320 322 323 325 323
290 294 294 291 290 291 286 292 292 292 290 284 291 282 290 293 295 297 298 298 300 308 311 314 315 315 317 317 318 319 320 317 318 319 317 317 316 316 318 320 321 322 324 324
289 292 291 290 291 293 289 295 293 293 290 289 288 284 288 294 294 297 298 298 299 306 312 311 314 315 318 319 319 320 319 319 318 317 317 317 315 316 318 319 319 320 320 321
291 296 295 293 295 295 296 294 293 292 290 283 287 286 285 289 294 297 299 300 298 301 311 312 315 316 317 319 318 317 316 316 318 316 315 315 315 315 313 317 317 318 319 318
288 290 293 296 290 294 295 290 282 281 281 280 289 286 288 294 298 300 301 302 301 302 309 311 312 314 317 317 317 316 316 314 316 316 314 313 314 315 315 316 317 316 317 318
280 278 290 295 291 290 291 289 283 277 278 280 291 284 290 298 301 302 303 301 301 300 309 311 312 314 315 317 316 316 315 315 316 317 316 314 314 316 316 316 316 317 317 318
280 281 291 294 295 294 291 286 292 286 287 281 285 291 296 301 300 301 302 301 299 301 309 310 312 314 315 316 316 316 315 314 316 316 317 315 314 314 314 314 315 316 317 318
285 280 288 292 295 295 293 296 285 287 279 277 284 288 289 295 297 300 301 302 303 306 308 309 312 314 316 316 317 317 317 314 315 315 316 316 315 314 312 311 311 314 315 316
289 284 284 292 289 289 291 290 290 290 287 282 280 287 297 297 300 299 301 304 306 305 309 310 311 313 315 315 316 316 315 314 314 314 316 316 314 315 316 313 312 312 313 313
290 287 282 285 292 295 294 291 291 285 283 285 285 286 300 301 302 301 302 306 306 309 310 311 312 313 313 313 315 315 315 315 315 314 316 315 315 317 317 316 314 312 313 313
291 285 279 282 288 292 290 292 293 292 290 285 282 286 301 302 303 304 303 304 303 303 304 306 307 307 309 312 314 314 315 315 316 317 316 315 313 314 314 316 317 316 314 313
293 285 282 277 283 289 286 290 293 291 286 286 287 291 295 297 299 302 302 302 301 300 300 300 300 302 304 308 310 310 311 314 316 316 316 315 313 314 314 314 315 316 317 316
288 281 285 287 288 288 287 287 290 288 290 287 289 290 296 298 299 301 303 302 298 297 297 298 297 297 299 302 303 304 306 305 308 315 315 314 314 314 314 314 315 316 316 317
289 282 284 282 287 287 284 287 288 290 292 291 291 290 300 303 304 303 302 299 296 294 293 293 294 294 294 295 296 298 298 300 302 302 302 303 305 309 315 315 315 315 316 316
286 284 281 277 282 282 280 286 286 289 294 292 288 294 301 301 301 301 299 296 293 292 291 290 290 290 291 293 294 293 294 296 296 297 297 298 299 300 301 304 307 313 315 317
285 284 282 277 280 273 285 289 294 291 294 296 296 298 300 296 295 296 298 294 291 290 289 288 288 288 288 291 292 292 291 290 291 291 292 293 294 296 297 298 299 299 301 305
288 283 278 275 276 280 283 291 292 291 292 298 297 298 294 293 292 290 293 292 290 288 288 287 287 287 288 289 290 289 288 287 287 287 288 289 290 291 291 292 293 294 297 296
286 285 280 278 274 272 284 290 297 296 287 298 300 296 294 297 288 287 290 290 288 287 287 286 286 286 286 287 289 286 285 285 284 284 284 287 287 287 287 289 289 291 290 288
280 280 278 276 275 279 287 291 295 282 288 299 301 298 298 293 292 288 288 287 287 287 286 286 285 284 284 286 287 285 283 282 283 284 284 284 285 285 285 286 287 287 286 285
281 279 275 277 277 274 293 294 287 291 297 296 296 293 289 288 287 286 285 285 284 283 284 284 283 282 284 285 285 283 282 282 283 282 282 282 282 283 284 284 285 285 285 283
275 283 282 281 281 291 292 293 294 296 294 293 292 291 289 287 285 284 282 282 282 282 282 282 282 282 282 283 284 283 283 282 282 281 280 281 282 282 282 282 281 281 282 282
287 290 286 287 289 289 290 290 290 293 293 293 293 291 288 284 283 282 281 281 280 281 281 281 281 280 280 281 282 283 284 282 281 279 279 280 280 280 281 281 281 280 280 280
286 285 286 287 289 289 288 289 288 287 288 287 286 285 284 283 281 281 280 279 279 278 279 279 279 278 278 279 279 281 282 282 280 280 279 278 278 279 278 279 279 279 280 281
286 283 281 283 290 289 286 287 287 285 284 284 282 281 281 280 279 279 277 277 276 276 276 276 277 277 277 278 277 277 279 281 279 278 277 276 276 276 276 276 276 280 280 280

GFSCGP_sfc_thetae_078.txt.gz
Theta_e
291 285 283 284 287 287 288 286 285 286 292 291 291 290 292 294 294 294 295 295 295 298 306 312 318 318 317 317 319 320 321 321 320 318 318 319 319 321 323 326 327 325 325 327
288 284 288 289 288 287 286 284 285 289 293 292 290 290 295 295 294 296 297 297 297 297 306 311 316 317 317 320 320 319 320 319 320 321 320 320 320 321 322 324 323 322 321 321
285 288 293 290 289 287 287 285 286 286 291 293 290 289 291 295 295 296 297 298 298 298 304 311 314 316 317 319 319 319 319 318 318 320 319 318 319 320 320 322 323 322 321 320
289 293 291 290 289 289 284 291 290 289 288 282 289 281 288 292 295 296 297 297 297 298 305 312 313 314 317 318 320 319 317 317 319 319 318 317 315 315 318 320 322 323 322 320
288 292 291 289 290 292 288 293 292 291 287 286 287 283 286 291 290 293 297 298 298 299 308 312 314 315 317 318 317 317 316 317 318 318 318 312 314 315 318 319 320 321 322 320
291 295 294 292 294 294 294 292 291 290 287 281 285 284 283 288 292 294 297 299 299 297 309 312 314 315 318 318 317 317 318 318 317 317 317 312 314 315 315 315 318 318 319 321
287 290 293 295 289 293 292 289 280 280 280 279 288 285 287 294 296 297 298 299 300 299 303 309 311 314 316 316 318 318 317 316 316 315 316 315 312 313 312 316 317 318 317 317
281 278 290 294 291 288 289 288 280 276 278 280 289 282 288 299 301 301 302 302 303 299 302 309 312 314 315 317 317 316 315 315 315 315 315 313 312 312 312 315 317 318 318 318
279 280 291 293 293 293 290 287 291 285 286 283 284 288 296 301 301 301 302 304 304 306 303 308 311 314 315 316 316 316 315 315 316 316 315 314 311 312 315 315 316 317 317 318
285 280 288 291 294 293 293 295 286 286 278 277 282 285 288 295 297 300 301 302 304 307 308 309 312 313 316 317 316 317 316 314 315 316 316 315 315 313 313 311 313 316 317 317
287 284 284 291 288 287 290 289 289 289 287 279 278 283 297 297 300 299 301 302 303 307 308 309 311 313 316 316 316 315 315 314 315 315 316 316 315 314 311 312 312 311 315 316
290 287 281 284 291 294 294 289 289 285 282 285 284 283 300 301 300 302 300 301 303 304 307 311 312 313 314 314 315 315 314 315 315 315 315 316 316 315 312 313 312 313 312 314
289 285 279 281 286 292 289 291 291 291 289 283 282 284 301 301 299 301 299 299 300 300 300 303 307 311 313 313 314 314 315 314 315 315 315 314 314 315 312 313 314 312 312 312
292 285 281 277 280 287 284 287 289 289 284 285 285 288 295 297 297 299 300 297 297 297 298 298 298 301 303 306 307 308 308 313 316 315 315 314 314 314 312 312 313 313 313 312
288 282 284 284 286 286 286 285 286 285 288 285 287 289 294 297 298 300 300 296 294 292 293 294 295 296 298 299 300 302 303 305 307 314 310 307 312 315 314 314 313 313 314 314
288 282 283 281 284 283 281 282 284 285 287 289 290 290 298 302 303 301 299 295 291 290 290 290 291 292 293 294 295 295 296 297 299 299 300 301 303 304 304 307 313 315 315 316
286 283 280 277 281 281 276 282 283 285 288 290 286 292 299 299 301 299 296 294 291 289 288 288 288 289 290 290 291 290 291 293 293 294 294 295 297 297 299 301 301 301 302 304
284 283 281 277 279 270 280 286 287 290 292 293 294 298 298 294 293 295 295 292 289 288 288 287 287 288 289 289 289 288 288 288 288 289 290 291 292 292 294 294 294 295 297 294
287 283 278 274 275 278 281 288 288 287 286 296 296 295 293 292 290 288 290 290 288 287 287 286 286 287 288 288 287 287 285 285 285 285 287 288 289 289 291 290 291 291 290 288
285 284 279 278 273 270 280 287 291 291 283 297 299 294 292 294 287 285 288 288 286 286 286 285 285 286 286 287 286 284 283 283 283 283 284 285 287 287 287 288 288 288 287 286
279 280 278 276 274 278 286 291 294 279 283 295 298 295 294 292 290 286 286 286 286 285 285 285 284 283 284 286 285 283 282 281 282 283 284 284 284 285 286 286 286 286 285 284
279 278 275 278 276 273 292 292 285 291 293 291 291 293 287 286 285 285 284 283 283 282 283 284 283 282 283 285 284 282 280 282 282 282 282 282 282 283 284 283 283 284 284 283
276 281 279 280 280 288 289 289 292 295 292 289 287 287 287 285 283 283 281 281 281 281 281 282 282 281 281 282 283 281 281 281 280 281 280 280 281 281 282 282 281 281 281 281
286 288 285 286 289 289 289 289 288 287 287 290 291 288 286 282 282 281 281 280 280 280 280 280 280 279 278 280 280 282 282 281 280 279 279 280 279 279 280 280 280 280 279 279
285 284 283 285 289 288 288 288 286 285 285 283 284 284 283 282 280 280 278 277 277 278 278 278 278 277 277 278 278 279 281 280 279 278 278 277 278 278 277 278 278 278 279 279
285 283 280 281 285 286 285 287 287 283 282 282 280 279 280 280 278 277 275 276 276 275 276 276 276 276 276 276 276 276 279 280 278 276 274 273 274 274 274 275 275 279 279 279

GFSCGP_sfc_thetae_084.txt.gz
Theta_e
296 292 289 291 292 293 292 289 287 291 295 294 294 296 299 303 304 305 306 308 309 310 313 315 317 322 329 332 335 336 333 336 331 328 328 327 328 328 328 329 329 330 329 328
293 289 294 294 293 291 291 289 290 293 296 295 295 296 300 302 303 304 306 307 309 310 312 313 316 321 328 330 334 334 332 332 332 331 330 328 327 328 329 330 332 333 331 331
292 293 296 294 293 290 290 289 290 291 296 298 296 295 298 301 304 304 305 307 309 310 311 312 313 318 327 329 333 331 331 333 330 332 329 329 328 327 326 328 330 329 328 327
294 297 294 292 291 292 288 295 294 293 292 288 297 287 296 300 301 303 305 307 308 309 311 312 313 316 324 328 333 331 331 332 329 330 328 327 324 321 325 326 326 328 326 326
290 292 292 290 291 295 291 296 294 294 292 292 292 290 295 299 298 302 305 307 309 310 312 313 314 315 323 328 332 330 328 329 329 327 330 326 325 324 327 326 325 323 322 322
293 298 298 296 297 296 297 294 294 295 292 285 291 291 294 298 300 304 307 310 311 313 315 315 316 317 322 328 331 327 325 325 327 328 329 327 325 325 324 324 321 321 321 321
291 292 296 299 294 298 296 290 284 284 283 284 292 291 294 301 304 306 308 310 313 315 317 317 316 318 322 326 326 322 322 322 325 330 328 325 325 325 323 322 320 320 319 319
286 284 293 298 295 291 293 291 285 279 282 287 293 288 295 304 307 309 309 310 311 313 317 318 317 320 322 326 320 320 321 322 323 328 326 323 325 324 322 323 323 322 321 320
286 285 295 297 297 296 292 289 295 288 289 285 289 294 301 303 304 305 305 307 307 309 312 318 317 321 323 324 318 320 321 321 322 325 321 321 324 323 321 323 325 325 326 325
291 285 293 296 298 298 295 297 287 290 281 280 288 290 292 298 300 302 303 304 304 304 305 313 317 320 323 322 320 323 326 320 322 321 321 320 323 324 323 324 324 324 325 323
294 290 289 294 291 291 292 290 291 291 289 284 283 290 301 298 299 300 303 301 301 300 301 305 317 319 321 320 321 321 322 319 320 322 321 320 321 322 322 322 322 323 324 323
294 291 286 288 295 298 296 293 293 287 285 288 287 289 304 302 302 303 299 300 299 298 298 301 305 317 317 318 317 318 319 318 320 321 320 320 323 322 320 320 323 325 324 324
287 289 283 285 291 295 292 293 293 291 291 286 284 289 303 303 303 302 300 299 296 295 295 296 298 302 310 315 316 317 318 318 319 318 318 319 320 319 318 318 323 322 321 322
289 289 287 283 286 292 289 291 293 291 287 287 288 290 295 297 298 301 300 298 295 292 292 293 294 295 298 301 304 311 316 317 318 318 318 317 317 318 317 318 321 319 319 319
290 286 288 288 288 289 289 288 289 288 289 285 288 288 293 298 300 301 299 296 292 290 289 289 290 291 293 295 297 299 303 307 311 309 307 307 307 311 315 317 319 321 321 320
288 285 286 283 288 287 284 286 286 287 287 288 291 291 299 302 302 300 298 294 290 288 287 288 288 288 288 290 291 293 295 298 300 300 299 301 301 302 302 303 304 304 304 301
287 286 283 279 285 284 281 285 287 289 292 292 289 294 300 300 300 296 294 292 289 287 286 286 287 286 286 287 289 289 291 293 294 293 295 296 297 297 297 297 296 294 294 294
286 287 286 281 282 275 285 293 291 288 292 294 294 297 296 295 291 291 291 290 288 287 286 286 286 286 286 287 287 288 289 289 290 290 291 293 294 293 293 293 292 290 290 289
291 288 284 280 280 282 285 289 289 287 288 294 293 295 296 291 289 285 287 287 286 285 285 286 287 286 286 286 287 287 287 287 288 287 288 290 291 290 290 289 288 288 287 286
291 291 286 283 273 273 286 291 296 295 285 295 295 293 293 292 288 281 285 286 285 284 285 285 285 285 286 286 287 286 285 285 285 286 286 290 289 289 288 288 287 287 287 286
285 286 283 282 280 284 291 293 296 284 285 295 291 289 292 291 285 283 284 284 285 285 285 285 285 284 284 286 286 284 284 284 285 286 287 288 288 288 289 289 289 289 288 287
284 283 283 284 280 277 293 293 287 290 293 291 288 286 283 282 282 282 283 283 283 283 284 285 284 284 285 286 285 283 283 284 285 285 285 285 286 287 287 288 288 289 288 287
284 286 286 286 286 290 290 289 291 291 290 289 287 286 284 283 282 282 281 281 282 282 282 283 283 283 284 284 285 283 283 284 284 284 284 284 284 286 287 287 286 287 287 286
288 290 288 289 287 287 288 288 288 287 286 286 287 286 284 281 281 280 281 281 281 281 281 281 281 281 281 282 283 284 284 284 284 283 283 282 282 283 284 283 284 284 284 284
288 289 285 287 286 286 285 286 287 286 285 284 284 284 282 281 280 280 279 279 280 280 281 281 280 280 280 281 281 282 284 284 283 283 282 282 282 280 279 280 281 280 280 281
287 283 283 283 285 286 283 285 286 283 283 284 282 280 281 280 279 279 278 279 279 279 280 280 280 279 279 279 279 280 282 283 282 282 281 281 281 281 280 279 277 278 278 279

GFSCGP_sfc_thetae_087.txt.gz
Theta_e
298 293 291 293 295 295 293 292 291 294 297 295 295 296 298 301 302 303 305 306 309 311 314 316 317 318 321 327 332 336 340 339 340 335 331 331 328 331 331 332 333 333 333 332
296 291 296 297 296 293 292 291 291 294 297 296 296 297 301 302 302 304 305 307 308 311 313 314 316 317 322 328 333 336 338 338 338 334 334 333 332 330 333 333 331 331 329 330
294 296 299 295 294 292 292 290 291 292 295 298 297 295 297 303 306 306 307 308 309 310 312 314 315 316 322 327 332 335 337 338 337 336 334 333 331 330 329 328 329 334 333 334
296 299 296 294 293 294 290 295 293 292 292 288 299 288 296 300 301 304 306 308 309 309 311 314 315 315 319 327 332 335 336 337 336 336 333 330 327 324 327 328 330 331 332 331
292 295 294 293 294 295 291 297 295 295 293 293 292 290 294 301 299 303 307 309 311 312 312 313 314 316 317 326 330 335 335 335 335 334 333 330 328 327 328 328 328 328 328 327
295 300 297 296 297 297 297 295 295 294 293 286 290 291 291 297 301 303 308 310 313 315 316 316 317 318 316 322 331 335 333 333 332 333 332 331 328 326 325 327 326 325 326 323
292 293 297 298 295 298 295 291 284 284 284 283 293 291 294 302 304 306 306 309 311 313 316 320 319 318 318 322 329 333 331 330 330 332 332 330 329 327 325 326 325 322 321 320
288 286 294 297 295 293 293 292 285 278 281 285 293 287 294 305 306 307 309 310 312 312 314 316 321 321 320 322 329 328 326 326 327 331 331 330 328 326 325 327 324 324 322 322
288 288 296 297 299 297 292 289 295 288 289 286 289 293 303 305 304 305 306 308 309 310 311 312 316 321 323 325 326 324 323 324 326 331 330 328 327 325 324 327 327 325 325 323
293 287 295 297 300 299 295 297 288 290 281 280 287 290 293 298 300 303 304 306 307 309 308 306 311 316 324 325 323 322 323 324 326 330 328 325 325 325 326 327 326 326 327 325
293 291 290 296 293 291 292 291 292 292 290 284 283 289 302 300 302 302 303 305 305 305 304 300 302 306 321 322 321 320 323 323 324 327 325 325 324 324 325 324 325 325 326 325
290 289 287 290 296 298 296 293 293 287 286 290 289 291 304 303 304 305 304 305 304 303 301 297 297 300 315 320 320 321 321 321 322 324 322 323 323 324 323 322 323 325 324 324
288 286 283 287 292 296 292 295 295 294 293 288 285 289 302 302 301 304 304 304 303 301 297 294 294 294 298 306 318 318 319 320 321 322 321 322 321 320 320 321 322 324 323 323
289 286 284 283 287 292 290 292 294 293 288 288 289 292 296 297 299 303 304 303 301 298 294 291 291 291 293 296 300 303 316 320 320 319 319 318 319 319 320 320 322 322 322 321
289 281 285 290 291 292 291 291 292 290 292 288 290 290 293 299 300 305 304 300 297 294 291 289 288 288 289 291 294 297 299 306 312 309 309 308 310 316 316 314 311 317 315 316
288 283 283 288 290 290 287 290 290 289 289 288 289 291 300 303 305 302 298 295 292 290 288 287 287 287 287 288 290 292 294 297 301 301 300 301 302 303 302 301 300 300 299 299
284 284 284 283 287 286 283 287 288 289 292 293 289 295 299 293 289 289 291 289 288 287 287 286 285 285 286 287 289 288 290 293 294 295 296 296 296 296 295 295 293 293 292 292
284 283 284 282 283 276 286 293 292 290 294 294 294 296 294 289 286 286 286 286 285 285 286 286 286 285 286 286 288 288 290 289 290 290 292 293 292 292 291 290 289 288 289 288
289 286 284 281 279 282 287 290 290 289 290 294 293 295 294 289 288 284 286 285 284 284 284 285 286 286 286 286 286 286 286 287 288 287 288 290 290 289 288 287 287 287 286 286
291 291 286 284 278 275 286 293 296 295 286 294 294 292 293 293 287 283 285 285 284 284 284 284 284 285 286 286 286 285 284 285 285 285 286 288 288 289 287 286 287 287 287 286
285 286 283 284 281 285 292 295 297 284 286 293 292 289 285 283 283 283 284 284 284 285 285 286 285 284 284 286 286 284 284 284 285 286 287 287 288 288 287 288 289 289 288 287
284 283 283 285 281 279 294 294 288 289 293 291 288 286 282 282 282 283 284 284 285 284 285 285 284 284 285 285 284 283 284 286 285 285 286 287 288 289 289 289 290 289 289 288
285 288 286 288 285 291 292 289 291 291 287 288 287 287 285 283 283 283 283 283 283 283 283 284 283 283 284 285 285 283 283 285 286 285 285 286 285 285 287 287 287 288 288 287
290 293 289 289 287 287 289 291 290 288 286 287 288 287 285 282 283 282 283 283 283 284 283 284 282 281 281 283 284 284 285 285 284 283 282 282 282 282 283 282 281 281 284 284
289 291 288 285 286 288 288 288 288 287 286 286 285 285 284 283 282 282 282 282 282 282 283 282 281 281 281 281 281 284 286 286 284 283 283 282 281 280 278 279 280 279 280 280
287 284 283 282 286 287 284 287 287 284 284 285 284 282 283 282 280 281 280 281 281 280 281 280 280 280 280 280 280 281 283 284 284 283 282 283 282 282 280 278 276 278 279 279

GFSCGP_sfc_thetae_090.txt.gz
Theta_e
298 292 288 292 294 294 293 292 291 294 297 294 294 294 296 300 301 300 301 301 303 306 311 313 316 317 316 316 320 340 339 339 339 338 334 332 330 330 330 331 333 333 334 332
296 290 295 297 296 295 293 291 290 293 296 295 293 293 298 300 302 303 302 303 305 306 309 312 314 317 317 318 324 338 339 338 338 338 334 333 331 330 329 329 329 331 333 331
292 295 299 296 294 293 292 290 289 289 293 295 294 291 295 300 302 304 305 305 306 306 308 311 313 315 318 322 331 336 338 337 337 337 333 332 330 329 328 328 328 329 330 330
293 298 296 295 293 294 289 295 294 292 290 284 294 285 294 297 299 303 305 308 309 309 310 310 312 314 316 323 331 334 338 335 337 335 332 329 326 323 326 326 327 329 331 329
292 294 293 293 294 296 292 296 293 293 291 290 290 288 291 296 296 300 307 309 313 314 312 310 310 315 315 323 329 332 336 335 335 333 333 330 326 326 326 327 327 328 328 329
293 298 297 296 297 297 297 293 293 293 291 284 288 288 289 292 300 304 307 309 311 313 315 317 319 316 314 322 328 331 334 333 335 333 333 329 327 325 324 324 325 325 324 323
293 292 296 298 293 297 296 291 282 281 282 282 291 289 291 300 305 305 305 307 310 312 313 314 316 319 319 319 327 331 332 331 333 332 331 330 329 327 325 325 324 323 320 320
286 285 294 297 294 291 292 291 283 277 280 283 291 286 292 304 306 307 308 308 310 310 312 312 315 317 315 322 329 331 330 329 331 331 330 330 328 326 325 326 324 323 321 320
287 287 297 298 297 295 291 288 293 287 288 284 286 292 297 304 303 304 305 306 306 308 309 308 311 312 313 323 329 330 328 329 328 329 330 328 327 325 324 326 325 324 322 321
290 284 292 295 297 297 294 296 287 288 279 278 284 287 289 294 299 302 302 303 304 305 305 304 305 306 315 325 326 326 327 326 325 329 329 326 325 325 325 325 323 324 324 322
291 288 287 292 291 291 291 290 291 291 288 281 281 287 298 297 300 300 302 303 302 302 302 299 300 300 303 315 323 323 323 324 324 327 326 324 325 323 324 324 325 325 325 324
290 286 282 286 294 297 293 292 292 284 284 287 286 287 300 300 302 303 303 303 301 300 300 296 296 296 297 299 305 321 322 322 323 323 323 323 322 323 323 323 324 324 323 324
289 284 279 284 289 293 291 294 293 293 291 286 284 287 298 299 301 304 302 302 300 298 296 294 292 292 293 294 297 301 320 320 320 321 321 320 320 321 320 321 321 322 322 322
290 284 281 278 283 287 285 291 294 291 286 286 287 289 293 298 300 302 301 299 297 294 293 291 289 289 290 292 294 296 301 318 319 319 319 320 319 319 319 319 322 321 321 320
287 281 284 286 287 287 287 289 291 290 290 286 289 288 294 296 296 296 298 296 293 291 289 288 287 287 288 290 290 292 295 301 309 309 308 308 309 311 310 307 310 309 308 305
288 280 283 281 286 287 286 291 290 289 290 290 290 291 296 294 292 292 291 290 288 287 287 286 286 286 286 287 288 290 291 294 299 300 300 300 301 300 299 298 298 298 297 296
285 282 281 278 284 287 283 288 290 290 293 292 287 291 296 292 287 285 287 286 284 284 284 284 285 285 285 286 287 287 289 291 293 294 295 295 294 293 293 293 292 292 291 291
284 283 282 278 280 277 287 293 292 292 292 293 293 293 293 288 285 285 286 284 283 283 283 284 284 285 285 286 286 287 288 288 288 289 291 291 291 290 289 289 288 288 288 288
288 284 280 279 279 285 288 291 290 290 288 292 291 292 292 289 287 283 285 284 283 283 283 284 284 286 285 285 286 286 286 286 286 285 286 289 289 287 287 286 286 286 286 286
288 287 282 283 278 276 286 292 296 294 285 291 291 288 287 291 286 280 284 285 284 285 284 284 284 284 285 285 285 285 284 284 284 285 285 287 288 287 286 286 286 286 286 284
283 283 281 282 280 284 289 293 295 283 283 289 289 286 283 280 281 282 284 284 285 285 285 286 284 283 284 285 286 284 283 283 284 285 285 286 286 287 287 287 287 287 286 284
283 282 282 284 281 278 291 291 285 286 289 288 287 285 282 282 282 283 284 284 284 284 285 285 284 283 284 285 284 283 283 285 285 285 284 284 284 285 286 286 286 287 286 284
283 287 285 285 283 288 290 288 289 289 287 287 286 286 284 282 282 282 283 283 283 284 283 284 283 283 284 285 285 282 283 284 283 282 282 282 283 283 283 281 283 284 285 284
289 292 287 287 286 286 288 288 288 288 286 287 287 286 284 281 282 283 283 283 283 283 283 283 282 281 280 282 284 284 285 285 283 281 280 280 279 279 280 280 279 278 281 280
285 289 286 285 287 286 286 286 286 286 286 284 285 285 284 283 282 282 281 282 282 282 282 282 281 280 279 280 281 283 285 285 283 283 282 280 279 277 277 277 277 277 278 280
285 282 281 280 284 285 283 285 286 284 284 284 283 282 282 282 280 280 279 280 280 280 280 280 280 279 279 280 280 281 283 284 283 282 282 282 281 279 277 275 274 278 278 279

GFSCGP_sfc_thetae_093.txt.gz
Theta_e
293 285 282 285 288 289 288 287 286 288 292 290 290 290 292 294 295 296 297 298 300 300 303 305 306 308 310 311 309 335 335 336 336 334 333 330 329 329 327 329 331 331 330 328
291 285 291 292 292 290 289 287 286 289 293 290 289 289 292 294 295 298 299 299 300 300 303 305 306 308 309 310 312 334 335 336 336 335 334 331 328 324 325 328 330 330 328 327
287 292 296 293 291 290 289 287 286 287 289 290 288 287 290 295 297 300 301 301 303 301 302 304 306 308 309 309 318 334 335 335 335 333 329 327 325 324 321 322 324 329 331 328
290 293 293 292 291 292 286 292 292 290 287 281 287 280 288 294 296 299 301 301 299 308 310 306 305 307 307 310 330 334 335 334 333 332 330 325 324 321 321 322 324 327 329 329
288 290 290 289 290 293 290 295 292 290 286 286 287 283 287 294 293 296 304 306 306 308 310 311 313 315 311 316 333 334 333 333 333 330 328 325 322 320 322 321 322 324 325 327
290 294 292 291 294 294 295 292 291 288 285 280 285 285 285 288 292 301 306 307 308 308 310 311 314 315 315 316 328 333 331 332 331 329 328 325 322 320 321 319 320 322 325 326
290 291 294 294 289 293 291 286 278 276 277 278 289 286 288 296 301 304 304 305 306 308 308 308 308 309 311 312 314 329 330 329 330 328 327 327 325 321 320 319 320 319 319 318
283 281 290 296 290 288 288 287 280 274 275 279 290 283 289 300 299 302 306 305 306 305 304 303 305 305 306 314 317 324 328 328 327 327 326 327 326 321 321 321 320 317 317 319
284 284 293 294 295 293 288 285 292 285 285 280 284 288 295 298 297 298 302 301 301 302 300 300 301 302 302 306 320 322 324 326 326 325 326 326 325 321 321 320 321 319 319 318
287 280 289 292 296 295 291 292 282 285 278 276 282 284 287 294 294 299 298 298 298 299 298 297 297 298 299 303 310 321 323 322 326 326 326 326 323 322 321 321 319 319 321 320
287 285 283 288 287 288 290 287 289 289 285 277 278 285 295 293 295 298 297 297 296 296 294 294 294 295 296 298 302 307 320 322 322 324 325 323 321 323 321 320 320 319 321 318
288 283 278 281 288 290 293 290 288 281 281 285 283 284 295 296 298 300 297 296 294 293 292 292 291 292 292 294 296 299 303 318 319 323 322 322 321 321 321 322 323 323 321 321
287 280 274 276 283 289 287 288 288 287 290 283 281 285 295 298 297 296 293 293 292 291 290 289 289 289 290 291 293 295 298 305 320 321 320 320 320 320 320 321 321 321 322 322
288 282 278 273 278 284 282 285 287 286 283 285 286 287 293 294 292 293 292 290 289 288 287 287 287 288 289 290 290 292 295 300 317 319 318 318 318 318 317 319 319 319 317 319
284 278 281 282 283 284 284 284 286 285 288 284 286 287 290 290 291 290 290 289 287 286 286 286 285 286 287 288 289 290 292 296 301 307 307 307 308 308 307 306 305 304 303 303
285 278 279 278 282 284 282 285 287 287 288 288 289 288 291 290 289 288 287 286 284 284 284 284 285 285 285 286 287 289 291 295 294 296 297 300 300 299 298 297 297 296 295 295
280 277 275 272 282 281 279 287 287 288 290 289 286 288 291 286 284 284 284 284 283 283 283 283 284 284 285 285 287 287 288 290 291 290 291 292 293 293 292 292 292 291 290 291
280 279 279 275 278 273 286 293 292 288 288 289 289 288 287 284 284 284 284 283 282 282 282 283 283 284 285 285 286 287 288 288 287 287 288 289 289 289 289 289 288 288 288 287
285 280 277 276 276 283 285 288 288 287 284 288 286 286 287 285 284 282 284 283 282 282 282 283 284 284 284 285 285 286 285 286 285 285 286 286 287 287 286 286 285 286 285 285
286 285 279 279 275 276 283 287 292 293 280 287 286 283 284 287 283 277 283 284 283 283 283 283 283 284 284 284 285 285 284 284 284 284 285 286 286 286 285 286 285 285 284 283
280 281 277 277 276 281 285 288 292 279 280 286 284 282 280 278 280 282 284 283 284 284 284 284 284 282 283 284 284 283 283 282 284 284 284 284 285 285 285 285 285 284 283 282
280 280 281 281 279 275 286 287 282 285 287 286 284 282 280 281 281 281 281 282 283 282 283 284 283 283 284 284 283 281 280 282 282 282 282 282 282 283 283 285 285 285 284 282
281 285 282 283 281 285 286 285 288 288 286 285 283 283 282 279 279 279 280 281 282 282 282 282 281 281 281 284 283 281 281 282 281 280 279 279 279 280 280 279 280 281 283 281
285 288 284 284 283 284 285 286 286 286 285 285 285 283 283 279 280 280 280 281 281 281 281 281 280 279 279 281 283 284 284 282 280 279 278 278 278 277 278 278 278 279 278 277
282 285 284 283 285 284 284 285 285 284 284 283 284 282 280 279 279 279 279 280 280 280 280 280 279 278 279 280 280 282 284 284 283 281 279 277 277 276 276 277 277 277 278 278
283 282 279 277 283 283 282 284 285 283 282 282 280 279 280 279 278 279 278 279 279 279 279 278 278 278 278 279 280 281 281 282 281 281 281 279 277 276 275 274 274 279 279 279

GFSCGP_sfc_thetae_096.txt.gz
Theta_e
291 284 281 283 285 287 287 285 284 286 289 288 288 288 290 291 291 291 293 294 294 297 300 300 302 303 304 304 305 332 336 336 335 333 330 329 329 329 329 329 329 328 330 329
288 283 288 290 289 287 286 284 284 288 290 289 287 287 291 292 291 294 295 296 297 299 300 302 300 301 303 305 306 325 334 335 335 335 334 331 330 329 329 328 329 328 328 329
286 290 295 291 289 288 287 285 285 286 288 287 286 285 289 293 294 295 297 298 300 300 301 302 303 301 302 304 307 325 333 334 335 336 333 329 324 322 322 325 328 329 329 328
287 291 290 289 289 290 285 290 290 289 285 281 287 279 288 291 292 295 297 298 304 306 308 310 310 311 311 309 307 322 332 334 335 334 330 327 327 324 323 325 322 327 330 328
287 288 288 287 288 290 288 292 291 289 284 282 285 280 286 290 290 293 296 305 305 306 308 308 309 310 312 313 315 329 333 334 334 331 331 328 325 322 322 321 321 321 326 328
289 292 290 288 291 291 292 290 288 287 284 279 285 281 283 286 290 296 302 305 306 306 305 305 306 307 308 309 314 326 332 333 332 331 328 327 322 321 321 320 320 321 320 324
286 287 290 293 288 290 288 284 278 276 275 277 285 282 285 292 298 298 299 303 303 302 301 301 300 301 303 304 308 317 329 329 330 330 327 326 322 322 321 320 320 320 322 323
282 280 288 292 289 286 285 287 280 274 275 277 286 280 286 298 301 302 300 302 300 299 298 297 299 299 300 302 306 315 327 329 328 327 325 324 323 322 322 321 321 321 322 322
281 282 289 291 291 292 287 282 288 283 284 280 282 286 293 298 298 299 298 299 296 295 294 294 296 296 297 299 302 310 324 326 327 326 324 323 323 320 320 320 321 318 317 316
285 279 287 289 289 290 291 292 281 281 276 274 280 282 284 291 293 296 297 294 293 293 292 292 293 294 296 298 299 304 314 323 324 323 324 324 322 322 322 320 318 318 317 317
285 282 282 285 283 282 283 284 287 287 284 277 276 280 293 293 294 295 296 293 291 289 289 290 291 292 293 295 297 299 302 314 318 319 323 322 321 322 322 320 318 318 318 319
286 281 278 279 285 287 284 284 288 282 281 283 280 282 295 294 296 295 292 291 290 288 288 287 289 290 291 291 293 296 297 303 312 318 322 321 321 321 321 320 319 318 318 319
285 278 274 275 279 286 283 285 287 286 285 281 278 282 293 294 290 290 289 288 288 288 287 286 286 287 288 290 291 292 294 298 304 319 319 319 320 320 320 320 320 321 320 319
287 281 277 273 276 281 279 282 285 284 279 281 283 286 291 289 290 290 289 288 286 286 285 286 285 286 287 288 289 291 292 296 301 318 317 317 317 317 316 315 314 314 319 319
283 276 279 281 281 281 280 280 281 281 284 281 285 286 286 288 288 287 288 287 285 284 284 284 284 284 285 286 287 289 291 294 297 300 305 308 308 308 307 305 304 303 303 302
285 273 278 277 280 280 280 282 283 284 287 287 289 286 288 288 288 285 285 284 282 282 283 283 283 284 284 285 286 288 289 291 293 294 294 298 298 298 298 297 296 296 295 295
279 276 275 271 279 279 274 280 283 287 287 288 284 287 288 284 282 282 282 282 281 281 282 282 282 283 284 284 286 286 287 289 290 290 291 292 292 291 291 292 291 290 290 290
278 274 275 273 277 270 284 292 289 285 286 287 286 286 285 282 282 282 282 281 280 281 281 282 282 283 284 285 285 286 286 287 287 287 287 288 288 287 287 287 286 287 287 287
282 278 274 273 274 278 282 286 285 285 281 285 284 285 284 283 282 280 283 282 281 281 282 282 283 283 284 284 285 285 284 285 284 285 285 285 286 285 285 284 284 285 285 284
282 282 277 277 273 272 281 284 288 290 278 284 283 281 285 284 280 277 282 283 282 282 282 282 283 283 282 283 284 282 281 281 282 283 284 285 286 285 284 283 283 283 283 283
278 279 275 276 275 280 283 285 289 279 278 283 282 280 280 279 280 281 283 282 283 282 282 282 281 282 282 282 282 280 280 279 281 282 282 282 283 285 285 285 284 283 282 282
280 278 278 278 276 274 285 285 281 284 285 283 282 281 279 279 278 278 280 280 281 280 280 280 280 280 282 282 281 279 279 280 281 280 280 280 280 281 282 283 283 283 281 280
279 282 279 281 277 283 285 284 287 287 284 283 283 282 280 279 277 279 279 280 280 279 279 279 279 279 280 282 282 279 280 280 279 279 278 278 279 279 279 279 280 280 280 279
282 285 282 281 282 283 284 284 284 285 283 284 284 282 281 279 278 278 279 279 279 279 278 279 278 278 278 281 282 283 283 281 279 277 277 277 278 277 278 278 278 277 277 277
281 283 282 280 282 283 283 284 284 283 283 283 282 281 279 278 278 278 277 277 278 278 278 278 277 277 277 279 280 281 283 283 280 278 278 276 276 276 277 278 278 277 278 277
282 280 279 276 282 282 281 283 285 282 281 281 279 278 278 277 277 277 276 277 277 277 277 276 277 276 276 277 277 278 280 281 281 280 279 277 275 275 275 275 275 280 280 280

GFSCGP_sfc_thetae_099.txt.gz
Theta_e
289 283 281 282 284 286 285 283 282 283 288 285 286 287 290 292 288 288 290 291 293 294 298 299 299 300 300 300 300 320 331 335 335 334 332 331 331 333 333 334 332 332 331 329
287 282 287 288 287 285 284 282 281 285 288 286 285 285 290 290 289 290 292 293 294 295 297 299 300 298 298 301 301 312 328 334 335 335 334 332 332 333 333 332 331 331 329 329
284 289 293 289 287 285 285 282 283 283 287 287 285 285 288 291 292 294 295 294 296 301 305 308 309 306 306 302 300 309 326 333 335 335 334 326 325 326 325 327 328 328 329 329
285 290 288 286 286 288 283 289 288 287 283 279 286 279 287 289 289 293 295 296 302 303 305 304 304 305 307 308 311 307 324 332 334 335 332 328 327 326 327 329 329 326 327 327
285 288 287 285 287 289 286 290 288 287 283 281 284 279 284 290 288 291 298 303 302 302 302 302 302 303 304 305 308 313 318 331 333 334 332 329 327 326 326 327 322 326 325 326
288 291 290 289 291 289 291 287 287 284 282 277 283 280 282 284 288 295 299 299 299 299 300 300 302 302 304 304 305 308 319 329 332 333 332 329 327 323 321 323 321 322 324 325
286 286 288 292 287 290 287 282 276 275 274 276 284 280 282 293 297 297 297 297 297 296 296 297 297 297 299 300 301 305 313 328 331 332 331 328 326 323 321 321 322 320 319 318
280 278 286 289 288 285 285 283 276 274 275 276 284 278 283 296 298 298 298 298 296 294 294 294 295 295 296 298 300 300 307 327 330 330 328 326 322 323 322 321 322 321 320 320
280 281 288 289 288 285 284 281 287 281 281 278 280 283 292 296 295 298 297 295 293 291 291 291 292 293 294 295 298 299 305 326 327 328 324 322 322 322 321 321 321 321 321 322
284 277 285 287 287 287 286 288 279 282 274 274 278 279 281 289 293 296 294 292 291 290 289 289 290 291 292 294 297 300 302 308 323 324 325 323 322 322 321 321 320 319 318 318
283 281 280 283 281 279 280 279 283 284 282 278 275 278 293 291 294 296 291 290 289 288 288 287 288 290 291 292 295 297 298 303 308 319 323 322 321 320 320 320 318 318 317 316
285 281 276 278 284 285 282 283 284 271 275 279 279 280 294 292 291 291 288 288 288 287 287 287 287 288 288 289 291 294 295 299 303 309 319 319 321 320 320 319 319 318 317 317
283 277 273 275 278 282 281 282 284 284 283 277 277 281 293 292 290 289 288 287 286 286 286 285 285 286 286 287 289 291 294 296 298 305 318 319 320 320 319 319 319 319 317 315
287 280 277 272 276 279 277 279 281 280 273 276 278 281 290 289 288 287 286 286 285 285 285 284 284 284 286 287 287 289 291 294 295 299 315 318 319 319 318 319 319 319 316 317
282 276 279 280 280 281 279 278 279 278 279 275 279 283 286 287 286 285 285 285 283 283 283 283 283 283 284 285 286 288 289 292 292 294 296 300 308 309 310 308 307 306 306 307
282 272 278 277 279 279 277 279 280 281 282 282 283 284 288 287 285 283 283 282 281 281 282 282 283 283 283 284 285 286 287 289 290 290 289 293 296 299 297 297 297 297 296 295
278 276 274 270 278 277 273 278 280 281 286 286 283 285 286 283 281 280 281 281 280 280 281 281 282 283 283 283 285 284 285 287 288 287 288 287 288 290 290 290 290 290 290 291
278 274 273 271 274 267 280 286 286 284 284 287 286 286 284 281 281 281 281 280 280 280 280 281 282 282 283 283 284 284 285 284 285 285 286 287 286 285 286 286 286 286 287 287
281 277 268 268 271 277 280 283 283 282 279 283 283 284 283 282 281 279 282 282 280 281 281 281 282 282 282 282 283 283 282 282 282 282 283 284 285 285 284 283 283 284 284 284
281 280 272 272 271 271 278 283 288 287 276 282 282 281 283 282 280 276 281 282 281 281 280 280 282 282 281 281 282 280 279 280 279 280 281 282 284 284 283 283 282 283 283 282
276 276 274 274 272 278 281 284 287 279 277 281 281 280 282 279 279 280 281 280 280 280 281 281 281 281 280 281 281 278 277 277 279 280 280 281 281 283 283 283 282 282 282 282
279 277 275 276 274 273 283 284 281 282 283 281 281 280 278 278 278 278 279 279 279 278 279 280 280 280 282 281 279 277 277 278 279 279 279 279 279 280 281 281 281 281 280 280
276 280 278 278 276 283 284 282 285 285 283 282 280 280 279 277 277 277 277 278 278 278 278 279 279 279 280 281 281 278 278 278 278 277 277 278 278 278 279 278 278 278 279 279
281 284 280 280 281 282 283 283 284 283 282 282 282 281 279 276 276 277 277 277 277 277 277 278 277 277 277 279 280 282 280 279 277 276 276 277 278 277 278 278 278 277 276 277
280 282 281 279 282 282 282 282 282 282 282 280 280 279 278 277 276 276 276 276 277 277 277 277 276 276 276 277 277 278 280 281 278 277 276 276 276 276 277 278 277 277 279 278
281 279 278 275 281 281 280 283 283 280 279 279 277 276 277 276 275 276 275 275 275 274 275 274 275 275 275 275 275 277 278 279 279 278 276 275 275 274 275 276 277 281 281 281

GFSCGP_sfc_thetae_105.txt.gz
Theta_e
292 288 285 288 288 288 288 286 285 288 291 288 289 290 292 295 294 295 296 297 297 299 309 311 311 312 312 313 314 315 315 311 320 334 336 333 330 333 333 334 337 336 335 334
289 285 290 291 289 287 286 284 285 288 290 288 289 289 293 294 294 296 296 298 305 306 307 308 309 309 309 309 311 312 314 316 316 327 335 336 334 334 335 335 335 336 336 335
288 290 292 289 287 286 286 285 286 286 290 291 288 288 290 294 294 300 305 305 304 302 302 303 304 305 306 306 307 308 311 313 317 321 334 338 334 334 332 333 332 333 337 336
288 292 290 288 288 289 284 289 288 287 286 282 289 281 289 292 293 299 302 301 300 300 300 300 300 301 302 303 304 305 307 310 314 319 327 332 328 327 331 333 333 333 334 334
286 287 286 286 287 289 287 290 288 288 286 285 285 283 287 290 290 296 300 300 300 298 297 297 297 298 300 301 301 303 303 306 311 314 321 331 331 332 335 335 336 334 333 334
289 293 291 290 291 291 291 289 288 287 286 280 285 284 285 288 290 297 300 299 296 296 295 296 297 297 298 299 299 298 299 302 306 311 316 327 331 332 331 333 333 332 330 331
287 287 291 292 289 290 289 286 280 278 279 278 285 283 286 292 298 298 297 296 295 294 294 294 293 294 295 295 295 296 297 298 302 307 314 323 330 330 332 332 333 330 328 328
280 279 287 290 287 284 285 286 281 274 276 279 285 281 286 297 298 298 296 295 294 294 293 292 292 292 293 292 292 293 294 296 301 304 310 324 330 330 332 333 333 331 327 328
281 281 288 288 288 287 285 284 287 281 283 279 282 285 293 296 295 296 294 292 290 290 290 289 291 291 291 290 291 292 293 295 299 304 308 329 330 329 328 332 334 331 329 328
285 279 285 287 287 287 285 286 279 283 274 273 279 281 284 289 291 293 291 289 288 289 289 289 289 289 290 289 290 291 292 294 297 301 306 322 329 328 327 328 330 329 329 328
285 282 281 284 282 280 281 280 282 284 282 275 274 279 291 291 289 289 288 287 286 287 288 288 287 288 288 288 289 289 291 292 295 298 303 310 324 325 324 324 325 325 325 325
285 282 277 278 284 286 284 283 283 277 274 279 279 278 293 291 290 289 287 287 287 287 287 286 286 286 286 286 287 288 289 291 294 296 301 315 322 322 322 322 322 323 323 324
286 280 274 276 281 283 282 283 284 283 281 276 274 278 293 292 289 287 286 286 286 286 285 285 285 285 285 285 285 286 288 289 292 295 296 301 303 316 321 321 320 321 320 320
288 281 277 273 277 281 278 280 282 280 275 276 277 280 285 287 287 286 285 285 284 284 283 284 284 284 284 284 284 285 286 288 291 293 293 292 294 297 304 320 320 320 319 319
285 278 280 280 281 281 280 280 280 279 279 275 278 278 282 285 286 284 284 284 283 282 282 282 282 283 283 283 283 284 285 286 288 290 291 290 291 291 293 296 303 318 319 316
284 278 279 277 280 280 277 279 279 279 279 279 279 279 286 286 285 283 282 282 281 280 281 281 282 282 282 282 281 282 283 284 286 287 288 290 290 289 288 289 291 293 294 295
281 279 276 271 277 276 272 277 279 280 283 281 276 282 286 282 281 281 280 280 280 280 280 280 281 281 282 281 282 281 282 283 283 284 285 287 288 288 287 286 286 286 287 288
280 278 277 273 275 266 277 286 284 282 281 282 284 286 285 281 280 280 281 280 279 279 279 280 281 281 281 281 281 282 282 281 281 281 282 283 285 286 287 286 284 284 285 285
283 280 275 271 271 275 277 280 281 280 279 282 282 281 280 280 280 278 281 281 280 280 280 281 282 282 281 281 281 281 280 280 280 280 280 281 282 282 284 284 284 284 283 284
281 282 277 273 269 267 276 281 284 285 277 281 282 281 280 280 279 276 280 280 280 280 281 280 281 282 281 281 281 279 278 279 278 279 280 281 281 281 281 282 282 283 282 281
277 277 273 273 272 275 280 282 286 276 275 280 280 282 283 278 279 279 280 279 280 280 280 281 280 279 280 281 280 278 277 277 279 280 281 280 281 281 282 282 283 283 282 281
277 275 274 275 272 271 281 282 277 279 281 280 280 280 278 278 278 278 278 278 278 278 279 280 279 279 279 280 279 277 277 278 279 280 280 280 280 282 282 282 282 282 282 281
276 279 278 278 277 281 282 281 283 283 280 280 279 280 279 277 276 277 276 277 277 278 278 279 279 279 279 279 279 277 278 278 278 278 279 280 281 281 282 282 281 281 282 282
281 284 279 280 280 280 281 282 282 282 281 281 281 280 279 276 276 276 277 277 277 277 277 278 278 277 277 279 279 280 280 280 279 278 278 279 280 279 281 282 282 282 281 281
280 282 280 279 280 281 281 281 281 280 280 279 280 279 278 277 276 276 276 276 276 276 277 277 277 276 277 278 278 280 280 280 278 278 278 278 278 279 279 280 281 281 281 281
281 279 278 277 281 280 279 281 282 279 279 279 278 277 277 276 275 275 274 275 275 275 276 275 276 276 276 277 276 278 279 279 277 276 276 277 277 277 277 278 277 279 280 280

GFSCGP_sfc_thetae_108.txt.gz
Theta_e
297 292 290 293 295 295 293 291 290 294 297 294 293 295 298 301 301 301 302 303 303 307 312 315 316 317 318 319 319 320 322 324 325 317 326 332 335 338 339 343 343 342 341 340
293 289 294 296 295 293 291 290 290 294 296 294 295 295 298 300 301 302 302 302 307 309 310 312 313 314 315 315 316 316 318 320 322 323 320 330 334 335 337 340 342 341 339 339
291 294 297 294 293 291 292 290 290 290 294 296 294 292 295 298 300 301 305 308 308 307 307 309 309 310 312 312 312 313 314 316 318 322 324 324 332 335 334 335 337 338 340 339
293 298 294 293 291 293 288 294 292 291 290 286 293 285 292 296 297 301 305 306 307 306 306 306 306 307 308 309 311 311 312 313 314 318 320 323 324 328 332 334 335 335 337 340
292 291 291 291 291 294 290 294 292 292 290 290 290 287 291 295 294 298 304 305 304 304 304 304 304 305 306 308 308 309 309 310 311 312 313 316 322 330 333 333 334 334 334 337
293 296 294 293 294 294 295 292 292 292 290 283 288 288 289 292 294 299 303 302 302 303 303 303 304 304 304 305 305 305 305 305 307 307 309 311 315 324 331 333 333 332 333 333
290 291 294 295 292 294 292 290 283 282 282 281 289 287 291 296 299 301 300 301 302 302 301 301 299 300 301 301 301 301 299 299 302 301 304 308 310 320 326 333 333 332 332 331
285 283 291 293 291 290 290 290 283 277 279 283 288 284 291 300 300 300 298 298 298 299 300 299 298 299 298 299 298 296 294 294 296 297 300 304 307 313 326 331 330 333 333 330
285 284 290 290 290 289 288 286 290 285 286 282 285 289 296 297 297 298 297 297 296 296 297 297 297 297 296 296 296 292 291 292 294 296 299 302 305 311 328 335 331 331 335 333
288 281 288 289 289 289 288 290 283 285 276 275 282 284 288 292 293 294 293 293 295 296 296 296 296 295 293 293 292 291 290 290 292 295 298 301 304 312 331 335 332 331 336 334
290 286 283 286 285 285 284 283 284 286 284 278 277 282 295 291 292 291 293 294 294 294 294 294 294 294 293 292 291 289 288 288 290 293 296 300 308 328 331 331 333 332 333 332
288 286 281 282 287 288 287 284 284 280 278 282 282 282 296 295 294 293 293 292 294 294 294 293 293 292 291 290 289 287 286 286 289 292 296 299 305 314 324 327 330 330 329 328
288 284 278 278 283 286 284 286 286 285 284 280 279 283 296 293 292 292 291 292 292 291 291 292 291 290 287 287 285 285 285 286 288 291 294 295 298 300 305 322 324 325 325 324
290 284 281 277 280 284 281 283 285 283 279 280 281 283 288 291 290 291 291 290 290 290 289 288 289 288 286 285 284 284 284 286 287 289 290 292 293 296 298 301 310 321 321 321
288 280 282 283 283 283 282 282 283 282 282 279 281 281 285 288 289 289 289 288 288 287 285 285 286 287 285 284 283 283 283 284 286 286 286 288 292 292 291 293 294 297 305 316
287 281 281 279 283 282 280 282 283 283 282 282 282 281 288 291 289 288 286 286 285 284 283 284 285 285 284 284 283 282 283 283 284 284 284 285 288 289 289 289 290 290 291 293
285 282 279 275 279 279 276 280 281 282 284 283 279 286 290 287 286 286 284 284 282 282 282 283 283 284 284 283 284 283 283 283 283 282 284 284 286 286 287 287 286 286 286 288
283 282 280 276 276 270 281 287 286 284 286 285 285 288 290 286 284 284 284 282 281 281 282 282 283 283 283 284 283 284 284 283 282 282 282 283 284 284 285 285 284 284 284 284
286 282 278 275 275 278 280 282 281 281 281 284 284 284 284 283 283 281 282 282 281 281 282 282 283 283 283 283 283 283 283 283 282 282 282 283 283 283 283 283 282 283 282 282
285 285 280 277 272 271 279 284 286 285 277 283 284 283 282 283 281 278 281 282 281 282 282 281 282 282 282 282 283 282 281 282 282 282 283 284 284 284 283 284 282 282 282 281
279 280 277 277 275 279 282 284 286 276 276 281 282 285 284 280 281 280 282 281 282 282 282 284 282 280 281 282 283 281 281 280 282 283 284 284 285 284 284 284 285 284 283 282
279 278 277 278 275 273 283 284 279 281 282 282 282 283 280 280 280 280 280 280 281 281 282 283 282 281 282 283 282 280 280 281 283 283 283 283 284 285 285 285 285 284 284 283
279 282 282 280 279 283 284 282 284 285 282 282 281 281 280 279 279 279 279 280 280 281 281 283 282 282 282 283 283 280 280 282 283 283 282 282 283 284 284 284 284 284 284 283
284 285 283 282 281 282 283 283 283 284 282 282 282 281 280 278 279 279 280 280 280 280 280 281 281 280 280 282 282 282 282 283 283 282 282 283 282 282 282 284 283 282 282 282
283 285 282 280 282 282 282 282 282 282 282 281 281 281 280 279 279 279 279 279 279 280 280 281 280 280 280 281 281 282 282 283 282 281 282 282 282 282 281 279 280 280 281 281
284 280 282 280 283 283 281 283 284 281 280 281 280 279 280 280 278 278 277 278 278 278 280 280 280 280 280 280 280 281 281 281 281 280 280 281 281 282 282 281 278 278 278 279

GFSCGP_sfc_thetae_111.txt.gz
Theta_e
301 295 293 297 299 299 297 296 296 298 302 299 298 298 300 303 304 303 304 305 306 308 311 315 318 319 320 321 321 321 321 323 325 325 323 321 331 336 340 343 348 350 347 346
297 293 298 300 300 297 296 294 294 297 299 298 297 296 300 302 303 304 304 305 306 308 312 313 314 316 317 317 318 317 318 320 321 322 324 325 325 330 334 340 343 347 349 347
295 296 300 297 296 294 294 293 293 293 297 299 296 294 297 301 303 304 305 306 310 309 309 310 310 312 314 314 314 314 315 317 318 320 321 324 326 327 331 335 336 341 346 348
296 301 297 297 295 296 291 297 295 294 292 288 296 287 296 298 298 300 304 308 309 308 309 309 309 310 311 312 313 313 313 314 314 317 317 318 319 321 324 333 334 338 343 344
295 297 296 294 294 297 293 297 294 294 292 291 291 289 293 299 296 300 304 307 307 307 307 308 308 308 309 310 310 311 311 311 311 312 314 314 315 318 324 328 335 338 340 342
298 301 299 296 297 297 297 294 293 293 290 284 290 290 291 294 296 300 305 305 305 306 307 307 307 307 307 308 308 308 307 306 308 307 308 307 308 311 316 322 327 336 337 340
294 294 298 297 292 294 293 290 283 281 282 282 292 289 292 297 302 304 304 304 304 305 305 305 304 304 304 304 305 305 304 302 303 303 303 303 304 307 309 315 324 329 334 337
286 284 292 296 293 290 290 288 282 276 279 283 291 286 291 302 304 303 303 302 302 302 303 303 303 303 302 302 302 301 300 298 299 299 299 299 299 303 306 313 319 327 334 336
286 286 295 294 294 292 290 287 292 286 288 284 288 291 298 300 299 300 299 299 300 300 301 301 302 302 301 300 300 298 296 295 296 296 296 296 298 300 303 308 316 324 333 336
292 285 292 292 293 293 290 292 285 286 278 277 283 285 286 294 294 296 296 296 297 299 299 300 300 300 299 299 298 297 295 293 293 294 292 294 296 299 302 305 310 322 334 336
294 290 288 290 288 287 287 285 286 286 285 278 278 283 297 294 295 295 296 296 296 297 298 298 298 298 298 296 295 294 291 291 290 290 290 292 296 300 304 312 316 327 333 334
292 289 283 286 291 291 290 287 287 282 280 284 282 282 298 297 297 295 294 295 296 297 297 297 297 296 295 292 292 290 289 288 287 288 289 292 296 298 302 307 323 328 331 333
291 285 281 282 286 288 286 287 287 287 286 281 281 283 297 296 295 296 294 295 295 295 295 295 295 294 292 291 290 288 287 286 286 285 288 290 293 294 295 300 306 309 327 330
293 287 284 280 282 286 283 285 287 286 282 282 282 284 291 293 292 293 294 294 294 293 292 292 292 292 290 290 288 287 286 285 285 286 287 287 288 291 292 295 297 301 305 321
290 283 285 286 286 285 284 284 285 284 285 281 283 284 287 290 291 292 293 293 292 290 289 289 288 288 289 287 286 287 285 284 285 284 285 284 287 288 290 291 292 293 295 296
290 283 284 282 285 285 282 284 284 284 285 285 285 284 291 292 294 292 290 290 288 287 286 286 286 286 285 285 285 286 286 284 285 284 284 285 285 286 287 288 288 288 289 289
287 284 281 277 282 281 278 282 283 285 286 286 281 286 292 291 290 289 287 287 284 284 284 284 284 284 284 284 285 284 286 286 284 284 284 284 285 284 284 286 285 285 285 286
286 284 283 278 278 271 283 289 288 285 286 288 288 289 289 289 287 286 285 284 283 282 282 282 283 283 284 285 285 285 285 285 285 284 284 284 284 284 283 283 282 283 283 282
288 285 280 276 277 280 282 284 283 281 282 285 286 286 286 286 286 281 284 284 282 282 282 282 283 283 284 284 285 284 284 284 285 284 284 285 284 284 284 282 282 282 281 281
287 287 282 279 274 273 281 286 288 286 278 285 286 286 285 286 283 280 282 283 282 283 283 282 282 283 282 283 285 283 283 283 283 283 284 285 285 285 284 285 284 284 283 281
281 282 278 278 277 281 283 286 287 276 278 284 285 286 286 283 281 281 282 282 283 283 284 285 283 282 283 284 284 282 282 282 283 284 284 284 285 285 285 285 285 285 285 284
281 280 280 281 278 276 285 285 280 282 284 283 285 286 282 281 281 281 281 281 282 282 283 284 284 283 284 284 283 281 281 284 284 284 283 283 284 284 284 284 285 285 285 284
281 284 283 281 280 284 285 283 285 286 284 283 283 283 282 281 281 281 280 281 281 282 282 284 283 283 283 284 284 282 283 284 285 284 284 283 282 283 284 283 283 283 283 282
285 288 286 283 283 283 284 285 285 285 283 283 284 283 282 280 280 280 281 281 281 282 282 283 282 282 282 283 283 284 285 285 284 284 285 285 284 281 281 283 282 280 280 281
286 287 285 282 283 283 284 284 284 283 283 282 283 282 281 281 280 280 280 280 281 282 282 282 281 281 281 282 282 283 284 285 283 283 283 283 284 284 281 279 279 280 279 279
285 283 283 282 285 284 283 284 284 282 281 282 281 281 282 281 280 280 279 280 281 280 281 281 281 280 280 280 281 281 282 282 282 282 282 282 282 283 282 283 280 278 278 278

GFSCGP_sfc_thetae_114.txt.gz
Theta_e
300 295 292 296 298 298 297 295 294 297 301 299 299 298 301 303 304 303 305 305 305 306 312 316 318 319 319 320 319 319 321 323 322 322 322 323 321 324 334 339 342 343 343 343
296 293 299 300 299 297 296 294 294 297 300 298 297 296 300 302 302 303 304 305 305 306 311 313 314 315 315 315 316 315 315 317 317 317 318 320 321 323 325 325 331 340 342 343
294 297 301 298 296 294 294 292 293 293 296 298 296 293 296 300 303 304 305 306 307 308 310 310 310 312 313 313 313 312 313 313 314 316 315 316 319 321 323 323 324 335 338 343
296 299 297 296 295 296 290 297 296 294 292 287 296 285 294 298 299 302 303 307 308 307 308 309 309 309 310 311 312 311 311 310 311 311 310 311 311 311 316 319 323 326 332 334
295 296 295 295 296 298 294 298 295 294 290 290 290 287 291 297 296 298 303 306 306 307 307 306 306 307 308 309 308 309 308 308 307 307 308 307 307 308 310 312 315 318 324 330
297 302 299 297 300 299 297 293 294 294 290 282 288 287 287 292 296 298 304 304 305 305 306 306 306 306 306 306 306 306 305 304 304 304 304 303 303 303 305 307 309 313 318 325
295 295 299 300 295 296 294 289 281 280 280 280 289 286 289 298 302 302 302 303 303 303 303 303 302 302 303 303 303 302 302 300 300 300 300 300 300 300 300 302 305 308 312 317
287 286 294 298 295 291 291 289 281 275 277 281 289 284 290 300 302 302 302 301 301 300 301 300 301 301 301 301 300 300 297 296 297 296 296 297 297 297 298 300 302 305 309 314
287 287 296 296 298 295 290 286 292 284 285 282 285 290 297 299 298 298 298 298 297 298 298 299 299 300 299 298 297 297 295 294 294 294 294 294 294 295 296 298 300 302 306 310
293 285 293 295 294 294 290 292 284 285 277 276 283 285 285 293 294 296 295 295 296 296 297 297 298 298 298 297 295 295 294 292 291 291 291 292 293 294 296 298 299 301 303 307
294 290 288 292 288 287 288 286 287 287 283 278 277 282 295 294 295 294 294 295 295 295 296 296 296 297 296 294 293 292 291 290 288 288 289 290 292 293 295 297 299 302 306 308
292 290 284 286 292 293 291 289 288 281 280 283 281 281 298 297 297 296 294 295 295 295 295 295 295 295 293 292 290 289 289 287 287 287 288 289 290 291 293 294 297 301 305 316
292 286 281 283 288 290 286 288 288 288 287 281 278 281 297 296 294 296 295 295 295 294 293 293 292 291 291 289 288 288 288 286 286 286 287 287 288 288 290 292 294 296 302 306
295 288 284 280 282 286 284 286 287 286 281 281 282 283 289 293 292 293 293 294 293 292 291 290 289 288 287 287 287 287 287 287 286 286 286 286 286 287 288 290 291 291 294 296
290 283 286 286 287 286 285 284 285 284 285 281 284 284 288 290 291 292 293 292 291 288 288 287 286 286 285 285 285 286 286 287 286 285 285 285 286 286 287 287 288 288 288 291
291 283 284 282 285 285 282 284 284 284 284 284 285 284 291 292 294 293 291 290 287 285 285 285 285 284 283 284 284 285 285 285 286 286 285 285 285 285 284 285 285 285 286 285
288 285 281 277 283 282 278 282 283 284 286 285 281 287 290 290 288 286 287 285 284 283 283 282 283 283 283 283 284 283 284 285 285 285 285 285 285 284 283 283 282 282 282 284
286 285 283 279 279 271 282 289 288 285 286 288 288 288 289 286 284 284 284 283 281 281 281 281 282 282 283 284 284 284 284 284 284 284 284 285 285 284 284 283 282 281 281 281
289 285 280 276 276 280 282 284 283 280 281 288 286 288 287 286 284 281 283 283 282 281 281 282 282 283 283 283 284 284 283 283 283 283 283 284 284 284 284 284 283 283 282 281
287 286 282 279 274 272 281 285 288 287 277 285 285 286 285 286 280 277 282 283 282 283 283 281 282 282 282 282 283 283 282 282 281 282 282 284 283 283 283 283 284 284 284 282
281 282 278 279 277 280 284 286 288 276 277 283 284 285 287 281 281 281 282 282 283 284 284 284 283 282 283 283 283 281 281 281 283 282 282 282 283 282 282 283 283 283 283 282
281 279 279 280 277 275 285 285 280 281 284 284 285 284 281 281 281 281 281 281 282 282 283 283 283 283 283 284 282 280 280 282 284 283 281 279 280 282 281 280 280 282 280 280
281 285 282 280 279 283 284 283 285 286 284 283 283 283 282 280 280 280 280 281 281 281 282 283 282 282 283 283 283 281 281 283 283 283 283 281 279 278 280 278 277 278 279 277
287 289 285 283 282 282 284 284 285 285 283 284 284 283 282 279 280 280 280 281 281 281 281 282 281 280 280 282 282 282 283 284 283 282 282 283 282 279 278 278 277 276 275 276
287 288 286 282 282 283 283 284 283 283 283 282 283 282 281 281 280 280 280 281 281 281 281 281 280 279 279 280 281 282 282 283 282 282 281 282 282 281 278 277 276 276 276 276
286 283 283 281 285 284 282 284 284 282 281 282 281 281 282 281 280 280 279 280 281 281 281 280 280 279 278 279 279 280 282 282 281 280 281 281 281 281 281 280 277 279 279 279

GFSCGP_sfc_thetae_117.txt.gz
Theta_e
296 289 285 289 292 294 293 291 290 293 297 295 293 294 296 298 297 296 296 297 298 305 310 312 311 310 310 310 310 310 310 311 312 311 311 312 313 316 319 322 325 328 339 339
291 287 294 297 296 295 293 290 289 293 296 295 293 292 294 297 297 297 296 296 298 306 308 308 308 307 307 307 307 308 308 308 309 308 309 310 311 314 316 320 321 323 325 333
289 292 297 295 294 293 292 290 290 289 293 294 291 289 291 296 299 299 300 300 300 307 305 306 306 303 304 304 304 305 305 305 306 306 306 307 308 309 310 312 314 316 319 323
294 298 296 294 292 293 288 295 295 293 289 283 290 281 290 294 295 298 299 302 303 304 303 303 302 301 301 301 303 303 304 303 304 303 302 301 301 302 304 306 307 309 312 315
292 294 294 293 294 295 291 297 292 291 289 288 287 281 287 292 291 296 300 301 302 302 301 300 300 300 300 300 299 299 300 300 299 299 299 298 298 300 302 303 303 305 308 310
294 299 297 295 298 297 298 293 290 288 286 280 286 284 284 287 293 298 301 301 300 300 299 299 300 299 298 298 297 297 297 296 296 296 296 295 294 295 296 297 298 300 304 307
291 293 297 299 294 295 293 286 279 276 277 277 288 285 286 295 298 299 297 297 298 298 297 297 296 296 296 294 294 295 294 293 293 293 293 294 294 294 295 296 297 298 299 302
284 281 291 296 293 290 290 286 279 275 275 278 287 281 286 296 297 297 297 297 296 295 296 295 294 294 293 293 291 290 290 290 291 290 290 292 292 293 293 294 295 297 299 300
284 285 294 295 295 293 289 284 290 283 283 279 281 287 291 294 294 295 294 295 295 295 295 294 294 293 291 290 290 289 289 288 289 288 288 288 290 291 291 293 295 295 297 300
290 284 292 294 292 291 290 291 283 282 276 275 279 282 285 290 291 293 292 292 292 292 292 293 292 291 290 290 289 289 288 287 287 287 287 288 289 290 292 292 293 295 297 299
291 286 286 291 287 284 286 284 285 286 282 276 275 279 293 292 292 292 292 292 291 290 290 290 291 290 289 289 288 287 287 287 286 286 287 287 289 290 291 291 293 295 296 298
289 287 281 286 292 292 289 287 287 278 277 279 278 278 296 296 296 295 292 292 290 290 289 289 288 288 287 286 286 286 286 285 286 286 287 288 289 289 289 290 291 294 294 296
290 282 278 281 287 290 287 287 288 286 285 279 276 278 296 297 294 294 291 289 289 289 288 287 286 286 285 285 285 285 285 285 285 286 286 287 287 287 287 288 290 290 291 293
293 285 282 279 282 286 282 285 286 284 277 279 280 282 288 292 292 291 289 287 287 286 286 285 284 284 284 284 284 284 284 286 285 286 286 286 286 286 286 286 287 288 289 289
287 280 285 286 287 287 285 284 284 283 283 279 281 283 286 289 288 288 289 287 285 284 284 284 283 283 283 283 283 283 284 285 286 285 285 285 286 286 285 284 285 285 286 287
288 281 281 280 284 284 282 283 283 284 284 283 283 282 289 289 288 286 286 284 283 283 282 282 282 282 282 283 283 283 283 284 285 284 284 285 285 285 285 284 283 283 283 284
285 281 279 275 281 280 275 280 283 283 286 285 274 283 286 282 282 283 282 282 281 281 281 280 281 281 282 282 283 282 283 284 283 283 284 284 285 284 285 284 283 282 282 282
283 282 280 277 277 270 281 287 285 284 284 286 286 284 282 281 281 281 282 280 279 280 279 278 279 280 281 282 283 284 284 283 282 282 282 283 283 283 283 284 283 282 282 281
288 282 277 273 273 278 281 281 278 276 278 283 283 284 282 281 280 279 282 281 280 278 278 279 281 281 281 281 283 283 282 281 280 279 280 281 281 281 282 281 282 282 281 280
286 284 277 275 271 264 278 284 288 285 272 282 282 283 283 282 275 274 281 282 281 280 280 280 281 282 281 282 283 282 281 282 280 278 278 280 280 279 279 280 280 281 281 280
278 278 275 274 271 276 283 284 287 272 271 282 283 282 285 279 278 278 280 281 282 283 282 283 282 281 282 283 282 280 280 280 281 281 279 278 279 278 277 278 279 278 278 278
278 276 273 272 270 271 283 283 278 280 283 281 282 281 279 279 279 279 280 281 281 281 282 282 281 281 281 282 281 279 279 281 281 279 278 278 277 278 276 275 276 277 276 276
275 277 279 276 274 282 284 282 285 285 282 282 281 281 280 279 278 279 279 280 281 281 281 282 281 280 281 281 281 278 279 280 280 281 280 277 277 277 277 274 274 274 275 274
283 287 278 279 281 282 282 284 284 283 282 283 283 282 281 278 279 278 279 280 280 281 280 280 280 278 278 280 280 280 280 281 280 280 280 280 278 276 276 276 275 274 274 273
282 285 282 279 282 282 283 283 282 282 282 282 282 281 280 280 279 279 279 280 280 280 280 279 278 277 277 278 278 279 280 281 280 279 279 279 279 278 276 276 275 275 276 277
282 280 281 277 282 282 281 283 283 281 281 281 281 280 281 280 279 279 279 280 280 279 279 277 277 276 276 277 277 278 279 279 279 279 278 278 278 278 278 276 275 281 279 279

GFSCGP_sfc_thetae_120.txt.gz
Theta_e
295 288 284 289 289 291 290 288 288 290 294 292 291 291 294 295 293 293 295 295 297 306 309 307 307 306 306 306 305 306 305 306 305 305 305 306 305 308 311 315 318 319 323 327
290 285 291 293 292 291 290 288 288 292 295 293 290 288 291 293 294 295 296 296 303 306 304 305 304 303 303 303 303 303 303 302 302 303 303 303 303 307 308 310 308 313 311 314
287 290 295 293 291 290 290 289 289 289 292 291 289 288 290 295 297 298 299 299 305 304 302 301 300 299 300 299 300 300 300 299 299 300 300 300 301 302 303 302 304 305 307 310
291 296 294 293 291 292 287 292 292 291 286 281 289 281 288 293 293 295 299 300 301 300 300 299 297 297 297 297 297 298 298 297 297 297 296 295 295 295 297 299 301 301 303 304
290 291 291 291 292 295 291 296 293 290 285 283 286 281 286 291 290 294 296 297 297 297 297 297 297 296 295 295 294 295 295 294 294 294 294 293 292 293 295 296 296 297 300 302
293 298 295 294 296 296 297 293 289 286 284 278 284 283 282 287 292 294 296 296 296 295 296 296 297 295 293 293 293 292 292 291 292 291 291 291 290 291 291 292 293 295 297 298
291 292 294 296 291 294 292 287 280 276 276 276 286 282 284 292 293 293 292 293 295 295 294 294 293 292 292 291 289 290 289 289 289 289 288 288 289 289 290 292 293 294 294 296
282 280 289 294 291 289 290 288 280 274 275 276 285 278 284 293 293 295 295 294 295 294 294 293 292 291 290 289 288 287 287 287 287 287 286 287 288 288 289 291 292 293 294 295
282 283 292 292 293 293 288 282 288 283 281 278 279 284 291 294 292 291 292 292 292 293 293 291 290 289 289 288 287 287 286 286 286 286 286 286 287 288 289 290 292 293 294 295
288 282 290 292 291 290 289 290 280 282 276 274 278 279 281 289 288 292 290 290 291 292 291 290 289 288 288 287 286 286 286 286 286 286 286 287 287 289 289 290 290 292 293 294
290 286 285 290 286 283 284 282 283 286 283 275 274 276 290 291 292 291 291 291 289 288 287 287 287 287 286 285 285 285 285 285 285 286 286 287 287 288 289 289 290 291 292 293
291 285 280 284 291 290 287 284 286 279 277 279 276 277 294 293 294 293 288 288 287 286 285 285 285 284 284 283 284 283 284 284 286 286 287 286 287 287 287 287 288 289 289 291
290 283 278 280 284 288 286 287 288 287 284 279 275 277 295 294 293 290 287 287 286 285 284 283 283 282 283 283 283 283 284 284 285 286 286 286 286 286 286 285 286 287 287 289
293 285 281 278 281 285 281 285 287 285 280 279 279 281 286 290 289 287 286 285 284 283 283 283 282 282 283 283 282 283 284 284 285 284 284 285 285 286 286 286 285 285 286 286
287 280 283 285 287 287 285 285 285 283 283 279 281 281 284 286 285 285 285 285 283 282 282 282 281 281 281 282 282 283 283 283 284 284 283 283 285 285 286 285 285 285 285 285
287 280 280 279 284 284 283 284 283 282 283 283 283 280 285 285 284 283 283 283 281 281 281 281 281 281 281 281 282 282 282 282 283 282 282 282 283 284 284 284 284 283 282 283
283 281 278 275 281 279 276 279 281 282 285 284 276 283 283 281 283 281 279 280 280 280 279 279 279 279 280 280 281 281 281 282 281 281 281 281 281 281 282 282 282 281 281 281
283 281 280 277 277 270 280 286 285 282 282 284 284 283 282 282 281 281 281 280 279 279 278 278 278 278 279 280 281 282 282 280 279 278 279 280 279 278 280 280 280 280 280 279
288 281 276 273 273 277 281 281 277 277 278 281 284 280 280 279 279 278 281 280 277 276 277 277 277 276 279 280 281 281 282 282 279 277 277 277 278 276 277 277 278 278 278 278
285 284 276 274 271 263 272 283 286 282 271 281 281 283 280 278 272 274 281 279 277 275 275 276 279 281 282 282 282 281 281 281 279 278 277 277 277 275 275 275 276 277 277 277
278 277 275 272 270 275 281 282 286 272 272 280 281 280 283 279 276 278 279 280 278 276 280 282 281 280 280 281 281 279 279 278 279 279 278 277 277 276 275 275 275 275 276 276
277 276 272 271 267 269 281 282 278 278 279 280 278 280 280 278 278 278 279 280 280 280 282 281 280 279 280 280 279 278 278 279 280 279 277 277 276 277 276 275 275 275 274 275
275 277 274 276 272 278 281 278 283 285 282 281 278 279 280 278 278 278 279 279 280 280 280 280 279 279 279 280 280 277 278 279 279 279 278 275 276 276 276 275 275 275 275 274
282 285 276 278 278 280 282 283 283 280 280 280 281 280 280 277 278 278 279 279 279 280 279 279 278 277 277 278 279 279 280 280 279 279 279 279 278 276 277 276 275 275 275 275
281 284 280 279 281 282 282 282 282 281 280 281 281 280 278 278 277 279 279 279 279 279 279 278 277 276 276 277 277 278 279 280 279 278 278 278 278 278 275 276 275 275 276 277
279 282 277 273 281 280 279 283 282 280 279 280 280 279 280 280 278 279 278 279 279 277 277 276 276 275 275 276 275 276 278 279 278 278 277 276 277 276 276 275 274 278 278 279

GFSCGP_sfc_thetae_123.txt.gz
Theta_e
295 289 285 289 289 289 288 286 285 287 292 290 290 290 293 292 292 292 292 294 301 302 303 303 302 302 302 302 301 301 300 300 301 301 300 302 300 302 304 309 308 313 310 312
289 285 291 292 291 289 288 286 285 289 293 291 289 289 291 291 293 294 294 294 301 300 299 300 299 298 298 298 298 298 298 297 298 298 298 298 298 302 302 302 303 306 305 309
287 290 294 292 289 288 288 286 287 287 290 290 288 287 288 293 295 297 299 299 302 299 296 296 296 295 294 293 294 295 294 294 295 295 296 296 297 297 298 296 297 300 301 303
289 293 291 289 289 289 284 291 290 290 286 282 287 281 289 290 292 294 294 293 294 294 294 294 294 293 294 293 293 292 293 293 293 293 292 291 291 290 293 294 295 296 298 300
289 290 290 289 290 293 289 294 292 291 285 282 284 280 283 292 290 290 291 292 292 293 294 293 292 292 292 292 291 290 291 290 291 290 290 289 288 290 291 292 292 294 296 297
291 295 293 292 294 294 295 291 289 286 283 279 284 282 280 287 291 290 291 292 293 293 293 293 293 294 292 291 290 290 289 289 288 288 287 287 286 286 287 289 290 292 294 295
289 290 293 296 290 292 290 286 281 277 276 276 284 280 282 291 292 291 290 290 292 294 292 291 290 290 290 289 288 288 288 287 287 286 286 286 286 286 287 288 289 290 292 294
282 280 288 292 290 287 288 286 278 274 275 276 283 278 283 293 293 293 293 293 294 293 293 291 290 289 288 288 287 286 286 286 287 287 287 287 288 288 289 289 289 290 291 293
281 282 290 292 293 292 286 283 288 281 281 277 279 283 289 292 291 292 292 293 293 293 291 290 289 288 287 287 287 286 285 286 286 287 287 287 287 287 288 289 290 290 292 293
287 281 288 291 290 289 288 290 280 280 275 274 277 278 278 288 289 291 292 292 292 293 290 288 287 286 286 285 286 286 286 286 286 287 287 286 287 287 288 289 288 289 290 291
287 284 284 288 285 284 283 282 283 284 280 275 274 277 288 289 291 291 292 290 289 286 286 285 285 285 285 284 283 284 285 285 285 286 287 286 287 287 287 286 287 287 288 289
291 287 280 285 289 288 285 283 283 278 277 279 276 277 290 292 292 294 290 287 285 284 283 282 283 283 283 282 283 284 284 284 285 285 285 286 286 287 286 286 286 287 287 288
289 281 278 282 283 287 284 286 286 285 282 279 276 277 294 294 292 290 285 285 284 283 282 281 282 282 282 282 283 283 284 284 284 284 284 284 285 285 285 285 285 285 285 286
293 283 281 278 280 284 282 285 286 285 278 279 280 280 286 289 286 286 284 282 282 282 282 282 282 282 282 283 283 283 283 283 283 283 282 282 282 284 283 284 284 284 284 283
287 281 282 284 286 287 285 285 286 283 283 279 281 281 282 285 285 283 283 283 282 281 281 281 281 281 281 281 282 282 282 282 282 281 280 280 281 281 282 282 282 282 282 282
286 280 281 280 284 285 283 284 284 285 285 283 282 280 283 284 284 283 283 282 281 280 280 281 280 280 280 281 280 280 279 280 279 279 279 279 280 280 280 280 280 280 281 281
284 282 280 278 281 280 275 281 283 284 284 282 275 281 283 281 281 280 280 281 280 280 279 279 279 280 280 280 281 277 276 277 277 276 277 277 278 278 278 279 278 278 278 279
283 283 281 278 278 270 279 284 284 282 281 283 283 282 281 282 281 280 279 280 280 279 278 278 279 279 277 275 276 278 277 277 276 275 275 276 276 276 276 276 276 277 277 277
288 283 278 274 274 277 279 280 276 276 277 281 281 280 281 280 279 278 280 280 275 273 275 277 278 274 274 277 280 280 280 279 277 276 275 276 275 274 274 274 274 276 276 277
286 286 279 274 271 264 273 283 285 281 271 280 282 280 279 279 274 271 279 277 276 276 277 278 278 278 279 280 281 280 279 279 277 276 276 276 276 275 274 274 274 275 276 277
279 278 277 274 271 275 281 282 284 271 272 280 280 281 281 277 275 277 278 275 276 279 280 281 280 278 279 280 280 278 278 277 278 278 277 276 276 276 275 275 276 275 275 276
279 277 274 273 270 270 282 282 277 276 278 279 277 275 281 279 278 278 277 277 278 280 281 280 279 279 280 280 279 277 277 278 279 277 277 276 276 276 276 275 276 276 275 274
275 277 274 277 275 278 280 277 280 281 279 280 278 276 280 278 278 278 278 279 280 280 279 280 278 278 278 279 279 277 277 279 278 278 277 275 276 277 275 274 275 276 276 273
282 284 277 279 278 278 280 281 281 280 280 277 278 277 277 276 277 278 278 279 279 279 278 279 278 277 276 278 278 279 279 279 278 278 278 278 277 276 275 275 275 275 275 274
281 283 280 279 280 281 281 282 282 281 281 280 278 277 276 277 277 277 278 278 279 278 278 278 277 276 276 276 277 277 278 279 278 278 277 277 277 276 275 274 274 275 276 277
280 280 278 275 282 280 280 281 281 280 279 278 277 277 278 279 277 278 277 278 278 277 277 276 276 275 275 275 275 276 277 277 277 276 276 275 275 274 274 273 272 277 277 278

GFSCGP_sfc_thetae_126.txt.gz
Theta_e
295 289 286 291 288 289 287 285 284 286 290 288 288 289 290 292 291 291 293 292 297 296 297 297 296 295 295 295 295 294 294 294 295 295 295 299 297 301 303 302 305 304 304 307
289 285 292 292 291 289 287 284 283 287 291 290 288 288 290 291 291 294 295 296 295 294 293 294 294 293 292 291 292 293 292 292 292 293 293 294 296 298 300 297 299 300 300 303
287 291 294 291 289 287 286 285 285 285 289 288 287 285 287 292 293 294 293 293 292 291 291 291 291 290 290 290 290 291 291 290 291 291 291 292 294 294 295 293 294 296 298 299
288 292 291 289 288 288 283 289 289 287 285 281 286 279 285 289 289 290 290 290 290 291 292 292 291 291 290 289 290 290 291 290 290 289 288 287 287 287 290 291 292 293 296 298
288 290 289 287 288 290 287 293 290 289 285 281 282 279 281 290 286 287 288 290 291 292 292 291 292 292 291 291 290 289 289 289 288 288 287 286 285 286 288 289 289 291 294 295
290 292 292 291 293 293 294 290 288 284 283 278 283 281 278 284 287 287 289 291 292 293 292 292 292 292 290 290 289 289 288 288 288 288 288 287 286 286 287 288 289 291 292 293
287 289 292 294 289 292 290 285 278 275 275 277 282 280 283 289 291 289 289 291 293 294 293 293 291 290 290 288 288 287 287 286 287 287 287 287 287 287 287 288 289 289 290 291
280 280 288 291 290 287 286 285 279 274 274 275 282 277 281 292 292 293 293 293 293 291 293 291 290 288 287 286 286 286 286 286 286 287 287 288 288 287 288 288 288 289 290 291
281 281 289 292 291 291 286 283 287 281 280 278 278 281 289 292 291 291 292 293 293 293 291 288 288 286 285 284 284 284 284 285 285 286 286 287 287 287 287 287 288 289 289 290
287 280 287 289 289 288 287 289 280 279 274 273 276 277 279 286 288 291 291 292 294 293 289 286 285 285 285 284 284 285 285 285 285 286 286 287 287 287 287 287 287 287 288 288
287 285 284 288 285 283 283 283 283 283 280 275 273 277 285 288 290 290 291 293 292 288 283 282 283 283 283 283 284 284 285 285 285 285 285 285 286 286 287 286 286 286 287 287
289 284 279 283 290 288 286 286 286 280 277 279 276 278 289 290 291 293 292 286 284 282 281 281 281 282 282 283 284 284 284 284 284 284 284 284 285 285 284 284 285 285 285 286
289 283 280 281 282 286 284 285 286 285 282 279 276 278 292 292 292 293 284 284 282 281 280 280 280 282 282 283 283 283 283 283 284 284 282 282 282 283 282 283 283 284 284 284
293 284 282 278 280 283 282 284 285 284 275 279 280 281 287 290 288 285 283 282 281 281 281 281 281 281 282 282 282 281 281 282 282 282 282 281 280 281 281 281 282 282 282 282
288 281 283 283 285 285 283 284 285 283 283 280 282 281 284 287 287 284 282 282 281 281 281 281 280 280 281 281 279 279 278 279 279 279 279 278 280 280 280 280 280 280 280 281
286 282 281 280 284 284 282 283 284 285 285 283 283 282 284 283 282 282 282 282 281 281 281 280 279 279 279 279 280 280 278 277 278 276 276 277 278 278 278 278 278 279 279 280
282 281 281 279 281 281 278 281 283 285 284 282 276 281 281 281 282 280 281 282 281 280 279 279 277 277 277 277 279 279 278 278 277 275 276 276 276 276 276 277 277 277 278 279
284 282 282 279 278 271 279 283 284 283 282 282 281 281 281 281 280 279 280 280 280 279 278 277 275 275 275 276 278 280 280 278 276 276 276 276 275 275 275 275 275 275 277 277
288 284 280 276 274 277 278 280 278 278 278 282 280 281 280 280 280 278 281 281 279 276 272 274 276 275 276 278 280 281 279 278 277 275 275 275 275 275 275 275 274 275 275 276
289 287 282 275 272 266 272 282 284 281 271 281 281 281 279 279 275 269 277 277 274 274 276 277 278 279 280 279 281 279 279 277 275 275 275 276 276 275 274 275 275 275 275 276
281 281 278 276 273 275 280 283 284 271 272 280 281 281 280 276 275 272 276 274 273 277 278 280 279 278 279 280 280 278 277 277 277 277 276 276 276 275 274 275 276 275 274 274
280 278 277 276 273 271 283 282 278 276 279 280 278 276 280 277 277 277 276 276 277 278 279 280 279 279 280 280 279 277 276 278 278 277 276 276 276 275 275 275 276 275 273 272
276 280 277 280 277 280 281 278 281 281 279 280 277 275 277 276 277 276 276 276 278 278 278 280 279 278 279 279 279 276 277 279 279 278 277 276 275 275 275 274 274 275 274 272
282 284 279 279 278 279 281 281 281 279 280 276 277 276 280 278 278 277 278 278 277 277 278 278 278 277 276 278 278 279 279 279 278 277 277 277 275 274 273 275 275 274 273 272
282 283 280 279 279 281 281 280 279 281 280 277 275 275 274 276 276 277 277 277 277 277 278 278 277 276 276 276 277 277 278 279 277 276 276 276 275 274 273 272 274 274 275 275
280 280 278 277 282 281 280 280 281 280 279 278 276 275 276 277 276 277 276 277 277 277 277 276 276 276 275 275 275 276 277 277 276 275 275 274 274 273 273 271 271 276 276 277

GFSCGP_sfc_thetae_129.txt.gz
Theta_e
299 295 292 295 294 292 291 289 288 291 294 291 292 293 295 299 298 298 300 299 296 295 297 296 297 297 297 296 297 296 296 297 297 297 299 302 301 306 307 304 305 305 305 307
293 292 297 296 294 292 292 289 289 291 293 293 292 292 296 296 295 296 298 296 295 295 295 295 295 295 295 295 295 295 295 295 295 295 296 298 299 303 305 301 301 302 302 304
292 294 295 294 292 290 290 288 288 288 292 294 292 291 291 293 295 295 295 295 295 294 294 294 295 294 295 294 294 294 294 294 294 294 295 296 298 298 299 297 298 298 300 302
292 296 293 291 290 291 286 292 291 289 289 285 291 283 289 292 291 292 292 293 294 294 294 295 295 293 292 292 292 292 293 293 293 294 293 292 291 291 293 294 296 297 299 300
290 292 290 290 291 293 289 293 292 291 289 287 287 285 287 291 289 290 291 292 294 294 295 295 295 293 292 292 291 291 291 291 291 293 293 292 292 292 293 293 294 296 297 298
292 296 295 294 294 293 295 293 291 288 288 282 287 286 285 289 292 290 292 293 295 295 295 296 296 295 293 293 292 291 290 290 290 290 291 291 290 290 290 291 291 292 294 294
290 292 295 296 292 294 293 289 283 281 281 280 286 285 288 292 293 294 293 294 296 296 296 295 294 292 291 290 290 290 290 289 289 289 290 291 290 290 289 289 288 289 290 292
285 283 290 294 293 290 290 289 283 276 278 281 285 282 287 294 295 295 295 296 296 296 295 293 291 290 289 289 289 289 288 288 289 289 289 290 290 289 289 289 288 289 289 290
285 285 292 293 294 294 289 286 291 285 283 281 285 287 291 294 293 293 294 295 295 295 293 291 289 289 288 288 288 287 287 288 288 287 287 288 288 288 288 288 289 288 289 290
291 285 290 292 293 291 292 293 285 285 277 275 281 282 285 289 291 292 293 294 296 294 290 288 287 287 287 287 288 288 287 286 286 286 286 286 287 287 287 287 287 287 288 288
291 288 287 291 288 287 288 287 287 288 284 279 277 282 291 292 294 293 294 296 296 291 286 286 286 286 286 287 287 286 286 285 285 286 285 285 285 286 286 286 286 285 286 287
292 288 283 286 291 292 289 288 289 284 281 283 282 282 294 295 295 296 296 295 292 287 284 285 285 286 285 285 286 285 285 285 285 285 285 284 284 284 284 284 284 285 284 286
291 287 281 283 287 290 287 290 289 288 287 283 279 283 294 295 295 296 292 288 286 284 284 284 285 284 284 284 284 283 284 284 284 285 284 284 283 284 283 283 283 284 284 284
295 288 285 280 284 287 285 286 287 287 283 283 284 286 290 292 292 290 290 287 285 284 284 284 284 283 283 282 282 281 282 283 283 283 283 282 282 282 283 283 283 283 284 283
292 284 286 287 288 287 286 286 287 284 286 283 286 285 289 292 294 294 288 285 283 283 283 283 282 282 282 282 282 282 281 281 281 280 280 279 280 281 281 281 281 282 283 283
288 284 284 283 287 286 285 286 287 287 287 286 287 287 289 287 287 285 285 285 283 283 282 281 281 281 281 282 281 281 280 280 280 279 278 278 279 279 279 279 280 280 281 281
287 285 283 279 284 282 279 284 285 287 289 288 284 289 287 285 286 286 285 285 283 282 281 281 281 281 281 281 282 280 280 280 279 278 278 278 278 277 278 279 279 279 280 280
286 284 284 280 280 274 285 285 286 286 287 287 285 285 286 286 284 284 286 285 282 282 281 280 280 281 281 282 282 281 280 279 278 277 277 278 277 277 278 278 277 278 280 280
290 286 281 278 278 281 284 284 282 283 283 287 286 283 282 282 283 280 283 284 282 281 279 279 280 280 281 281 282 281 279 278 278 277 277 277 277 276 277 277 277 278 278 278
289 289 283 280 276 274 281 284 286 285 278 285 286 283 282 283 279 283 282 281 279 278 279 278 280 281 281 281 282 280 279 278 276 277 277 278 278 277 276 278 277 277 277 277
283 283 280 280 278 281 284 285 286 277 281 284 286 285 283 282 283 280 279 278 279 279 280 281 280 279 280 281 281 279 279 277 278 278 278 278 278 278 278 278 278 277 276 276
282 280 279 280 276 275 286 284 281 284 283 285 285 285 284 279 278 278 277 278 279 279 280 281 280 280 280 281 280 278 278 280 280 279 277 277 277 278 278 277 277 277 276 275
281 285 282 283 282 283 287 283 284 285 284 283 283 282 283 280 278 278 278 278 280 280 280 281 280 280 280 281 281 278 279 280 280 279 278 277 276 277 278 277 277 277 277 275
284 285 282 282 282 282 283 283 284 284 284 283 282 281 281 278 278 278 278 279 279 280 280 280 280 279 278 280 280 280 280 280 279 278 277 277 276 276 277 278 277 277 276 275
284 285 282 281 280 282 283 283 283 282 281 280 279 280 280 280 278 279 279 279 279 279 279 280 279 278 277 278 278 279 280 279 278 277 276 276 276 275 275 275 276 276 277 276
285 284 282 283 284 284 283 283 283 281 280 279 278 277 280 280 278 279 278 279 279 278 279 278 278 277 277 277 277 278 279 279 277 276 276 275 275 275 274 274 274 275 276 276

GFSCGP_sfc_thetae_135.txt.gz
Theta_e
306 300 297 300 302 302 300 298 296 300 303 301 300 300 302 305 306 305 307 308 307 305 306 307 308 309 309 309 308 307 307 308 308 308 307 308 308 312 312 312 312 312 312 313
301 298 302 302 302 300 299 296 297 300 302 299 298 298 302 304 304 306 306 308 307 305 305 306 307 308 307 306 306 306 306 306 306 306 307 308 308 309 310 309 310 310 310 311
297 300 301 300 299 298 298 296 296 295 299 300 298 296 299 303 304 305 306 307 308 307 306 306 306 305 306 305 306 306 306 305 305 306 307 307 308 308 307 306 307 307 308 309
297 301 299 297 296 297 293 299 297 295 294 290 299 289 297 301 301 303 304 306 306 306 307 306 306 306 306 306 306 305 304 303 303 305 304 304 303 302 303 304 305 305 307 306
294 296 295 294 296 298 295 298 297 295 294 294 294 291 295 300 298 300 303 305 306 307 306 306 306 306 305 304 304 304 304 303 303 303 302 302 301 301 302 302 302 303 303 304
297 301 299 298 299 298 299 297 297 297 295 287 292 292 292 297 298 300 303 305 306 307 306 307 306 305 303 303 303 303 302 301 302 301 300 300 298 298 298 298 298 299 300 300
295 295 299 299 296 299 298 294 287 286 287 286 295 291 293 299 301 301 302 304 306 307 307 306 305 303 301 301 302 301 300 299 300 299 299 298 297 297 296 295 294 294 295 295
290 288 296 299 296 294 296 294 287 280 283 286 293 288 294 300 304 304 303 305 306 306 306 305 304 302 300 300 300 300 299 298 298 297 297 297 296 295 294 293 292 292 291 292
290 289 299 299 299 298 293 291 296 288 290 286 289 293 298 302 301 303 303 304 305 306 304 304 302 301 299 299 299 299 298 297 297 296 296 296 295 293 292 292 292 291 291 291
294 289 296 297 299 299 296 297 288 290 280 279 286 288 290 296 298 301 301 303 304 306 302 302 301 299 299 299 299 298 297 296 296 297 296 295 294 293 292 291 289 289 289 290
296 293 291 294 292 291 292 292 292 292 288 282 281 286 297 296 299 300 302 303 304 305 301 301 300 299 298 298 297 296 296 295 295 295 295 294 293 292 291 290 289 288 289 289
294 291 286 288 295 296 296 293 293 286 284 287 285 287 299 299 300 301 301 304 305 306 304 301 299 297 297 296 296 296 295 294 293 294 294 292 292 291 290 288 289 289 288 289
295 290 283 285 290 293 291 293 293 291 291 286 282 286 299 300 301 301 301 302 304 305 301 298 297 296 296 294 294 294 293 292 293 292 292 291 290 290 289 288 288 288 287 287
295 289 286 281 285 289 287 291 293 291 285 286 286 289 294 296 296 298 302 301 303 303 298 297 296 296 294 293 292 290 289 290 290 289 288 288 288 288 288 288 287 287 287 286
294 287 289 289 290 290 289 289 290 288 289 286 288 288 293 296 297 298 302 301 301 299 297 296 295 294 293 291 290 289 288 288 289 287 286 286 287 286 286 286 287 287 287 286
293 286 288 285 288 288 287 289 289 289 290 290 290 289 296 298 300 299 300 301 299 298 296 294 292 292 289 287 288 287 286 286 287 285 283 283 284 284 283 284 285 285 285 285
290 288 285 281 287 287 283 288 289 290 292 291 287 292 297 296 295 297 299 301 299 296 293 290 289 288 287 287 287 285 285 286 284 283 282 282 282 282 282 283 283 283 283 283
289 288 287 283 284 275 287 293 293 291 292 293 293 294 297 298 298 298 299 299 297 294 290 288 287 286 287 287 285 285 284 283 283 282 281 281 281 281 282 282 282 283 284 282
292 289 285 280 280 284 287 290 291 289 289 294 293 295 297 296 294 291 295 297 293 290 287 287 287 285 286 284 284 283 283 283 282 281 281 281 281 281 281 281 281 282 283 283
291 291 285 283 278 276 287 292 295 295 285 295 296 295 295 294 289 292 291 290 288 286 285 284 285 284 283 284 284 282 281 280 279 280 281 282 282 281 280 281 281 283 284 282
286 286 283 283 280 284 291 293 295 282 286 294 295 295 295 292 289 288 288 285 285 284 284 284 284 283 284 285 284 281 280 279 280 281 281 281 282 282 283 282 283 283 283 283
283 282 283 284 280 278 295 293 287 292 294 294 294 294 293 286 284 284 283 283 283 283 283 284 283 283 283 285 283 281 280 281 281 281 280 281 281 283 283 283 284 283 283 281
283 287 286 286 286 295 296 294 297 295 294 294 295 295 289 284 283 283 282 282 283 283 284 286 284 283 284 285 284 281 282 283 282 281 280 280 281 282 282 281 281 281 282 281
291 293 289 288 292 294 295 295 294 293 294 294 296 294 289 284 283 283 283 283 283 284 285 285 283 283 283 285 284 283 283 283 282 280 280 280 280 280 281 281 280 279 278 279
291 292 290 290 293 293 293 295 294 292 294 292 293 292 287 285 284 283 283 283 283 284 284 284 283 283 284 285 284 284 284 283 281 281 280 279 279 279 278 277 277 277 276 275
293 291 287 287 293 294 294 296 296 294 290 290 288 287 288 286 284 284 284 284 284 283 284 283 284 284 283 284 283 284 283 283 280 279 279 280 280 279 280 279 276 275 275 274

GFSCGP_sfc_thetae_138.txt.gz
Theta_e
304 299 296 299 301 301 300 298 297 300 303 301 300 300 302 305 305 304 305 306 308 306 307 308 309 310 309 308 308 307 307 307 307 306 306 307 307 308 310 308 311 308 309 310
299 296 302 303 302 300 299 297 295 299 302 301 299 298 301 303 304 305 306 307 307 305 305 306 308 307 307 307 307 307 306 305 305 305 306 307 308 308 308 307 309 307 308 307
296 299 303 300 299 297 298 296 296 295 299 300 298 295 298 302 304 305 306 307 308 305 304 305 306 306 308 306 306 304 303 303 303 303 304 304 306 305 303 303 304 304 306 305
298 302 299 299 296 297 293 298 297 296 294 289 297 287 296 299 301 303 303 305 306 307 307 306 305 306 305 305 305 304 303 302 302 303 301 301 299 297 300 300 300 302 302 303
295 297 296 295 296 299 295 299 296 295 292 291 291 288 292 298 298 300 302 304 306 307 307 305 306 305 303 304 304 304 303 302 301 301 301 299 297 298 299 298 297 297 299 299
296 300 299 298 299 299 300 296 295 295 292 285 290 290 291 294 298 301 303 304 306 306 306 306 307 305 302 303 303 304 301 300 300 300 299 297 296 295 295 294 293 293 294 294
293 294 299 300 295 298 296 292 284 283 284 284 293 291 293 299 301 302 302 303 306 307 306 305 304 302 301 301 301 301 300 298 298 298 297 296 295 294 293 292 291 291 291 291
289 287 295 299 295 293 294 293 287 279 282 285 292 286 292 301 303 304 305 305 306 306 307 306 305 303 300 300 300 299 298 297 297 297 296 295 294 293 292 291 291 290 289 290
289 290 298 299 299 297 292 289 295 289 289 285 288 291 297 300 301 303 303 304 304 305 305 305 304 302 300 299 298 298 297 296 296 296 296 294 293 292 291 290 290 289 289 290
295 288 296 298 299 298 295 297 288 290 280 279 285 287 289 295 298 300 302 302 304 306 305 304 302 300 299 298 298 298 297 296 296 296 295 293 292 292 291 290 289 289 289 289
296 292 291 296 292 291 292 291 291 291 288 281 279 284 296 295 299 299 300 301 303 305 304 303 301 299 298 298 297 296 296 295 295 295 294 293 291 291 290 289 289 288 289 288
294 291 286 289 296 296 294 291 292 286 284 286 284 284 298 300 300 299 300 303 305 304 304 302 300 298 297 297 296 296 295 294 294 294 293 292 291 290 289 288 288 288 287 287
294 288 282 283 288 291 289 291 291 292 291 285 282 284 298 299 299 300 299 300 302 304 303 301 298 297 296 295 295 294 293 292 292 291 290 289 288 288 287 287 288 288 287 286
296 290 285 281 284 288 285 288 290 290 285 285 286 287 293 296 297 299 300 302 303 303 301 298 297 297 295 294 293 291 289 290 290 288 288 287 286 286 286 287 287 286 286 284
293 284 286 286 287 287 287 287 288 287 288 285 287 288 292 294 296 298 300 301 301 300 297 296 296 294 293 292 290 289 288 288 288 285 285 285 285 285 285 285 285 285 285 283
294 285 287 284 288 287 285 287 287 287 288 288 288 288 295 297 298 298 299 300 301 300 297 296 295 293 292 289 287 287 287 287 286 284 281 282 283 283 283 283 283 283 283 282
290 287 284 280 286 286 281 287 287 288 290 290 285 291 295 295 297 298 299 300 300 297 296 294 292 290 288 287 287 285 285 285 283 282 282 281 281 280 279 282 282 281 280 280
288 287 286 281 284 275 286 292 291 289 290 292 292 293 295 295 298 299 299 300 299 296 292 290 288 287 287 287 285 285 284 283 282 280 280 281 280 277 280 278 280 279 280 279
292 288 283 279 279 283 286 289 288 287 287 293 292 294 295 297 296 293 295 293 291 289 287 287 286 286 284 284 284 283 282 282 281 278 278 278 276 276 278 276 279 280 280 280
290 290 284 282 277 274 285 291 294 293 283 294 294 294 295 296 289 289 291 288 286 286 285 284 285 284 283 283 283 280 279 279 277 278 279 279 279 277 277 280 279 281 281 280
284 284 281 281 279 282 290 293 295 281 284 295 294 295 295 292 288 287 287 285 285 284 284 285 284 283 283 285 283 280 279 278 278 279 280 280 282 281 282 281 281 281 281 280
282 281 281 283 279 277 294 293 287 291 295 295 295 296 288 286 284 284 284 283 284 283 284 284 283 283 284 284 282 279 278 280 281 280 280 280 281 282 282 282 282 281 280 278
282 285 283 285 285 296 296 294 295 298 295 296 295 292 288 284 284 284 282 283 283 284 284 284 283 282 283 283 282 279 280 281 281 280 279 280 282 282 281 279 278 278 279 278
289 293 287 287 291 292 295 298 297 296 295 296 296 291 287 284 284 283 283 283 283 284 284 284 283 282 283 284 283 282 282 283 281 280 280 280 279 279 280 278 276 275 274 274
287 289 288 288 292 292 291 296 297 296 295 294 294 291 286 285 284 283 283 283 284 285 286 284 283 284 283 284 283 283 283 282 281 280 279 279 279 277 276 275 275 274 273 273
290 289 287 286 293 292 294 296 297 295 293 292 290 287 287 286 284 284 283 284 284 284 284 284 284 284 284 284 283 283 284 282 280 279 279 280 279 279 277 275 273 276 275 275

GFSCGP_sfc_thetae_141.txt.gz
Theta_e
299 292 289 293 295 296 296 293 291 293 297 295 295 294 296 297 297 297 297 303 300 301 303 304 304 302 302 302 301 301 300 300 300 299 300 300 301 302 302 304 303 304 304 304
294 291 298 300 300 297 295 292 291 294 298 295 291 291 294 296 297 298 297 301 299 300 301 303 302 301 300 300 300 298 298 298 298 298 298 299 300 301 300 301 300 302 301 302
293 296 302 299 297 295 293 292 292 292 295 294 292 290 292 297 299 300 303 301 300 299 300 302 301 300 299 298 297 297 297 297 297 297 298 297 297 297 297 296 297 297 298 296
294 299 298 296 294 295 290 296 296 293 290 284 292 282 290 294 296 298 300 300 299 300 302 302 301 299 298 297 297 297 297 296 297 297 295 293 292 291 293 293 294 294 295 294
292 294 293 292 293 296 292 298 294 293 288 286 287 283 288 293 293 295 297 300 300 300 301 300 300 298 297 297 296 295 296 296 295 294 294 292 291 291 292 291 290 291 292 292
292 298 294 294 298 297 298 294 292 290 287 280 286 284 285 288 292 296 299 300 301 300 301 301 299 298 296 295 295 294 295 294 295 293 292 291 289 289 288 288 288 288 289 290
289 290 294 297 293 295 293 288 279 278 278 278 290 286 288 293 299 300 299 300 301 301 300 299 297 295 295 294 293 294 294 293 293 292 291 290 290 289 288 287 287 287 287 287
283 282 290 295 293 290 290 288 279 277 276 280 289 282 286 297 299 302 302 301 302 300 301 299 297 295 294 294 293 292 293 293 293 292 291 290 289 289 288 286 286 287 287 287
288 287 295 296 296 294 289 286 292 286 285 280 283 287 292 299 299 301 302 302 300 300 300 299 297 295 293 293 293 292 292 293 292 292 290 289 289 288 287 286 286 287 287 288
292 285 294 295 296 295 291 294 284 283 278 276 281 282 283 292 295 299 299 300 302 303 301 298 296 295 294 293 293 292 292 292 292 291 290 289 288 289 289 287 287 287 287 286
292 288 288 295 291 289 290 288 288 288 284 277 276 278 293 293 295 295 297 300 302 303 303 299 296 295 294 294 293 292 291 291 290 290 289 288 287 288 288 287 287 286 286 287
293 289 281 287 292 296 294 289 289 281 281 282 281 281 295 297 297 298 298 300 302 304 303 298 297 295 294 293 292 292 290 289 290 290 288 287 287 286 285 285 285 284 283 284
292 285 279 282 287 289 287 288 288 288 286 281 279 280 294 297 297 299 298 299 300 303 300 298 296 295 295 293 292 291 290 288 287 287 286 285 284 284 283 283 284 283 282 282
295 288 283 278 282 285 282 285 287 285 278 280 282 285 290 292 293 297 298 298 297 301 300 296 295 295 293 292 289 288 287 286 286 286 284 283 282 282 282 283 283 282 281 280
290 282 284 286 286 285 285 285 286 284 285 281 283 284 289 290 290 291 296 299 299 299 296 295 294 293 292 288 287 286 286 285 284 283 281 281 281 282 282 282 281 281 280 280
291 281 285 282 286 286 284 286 285 285 286 285 285 284 289 292 294 296 297 299 298 296 295 294 295 292 289 286 285 285 284 284 283 280 278 277 280 279 278 279 279 280 279 278
287 284 282 278 285 284 279 283 285 286 288 286 280 285 290 289 294 294 294 298 297 295 295 295 292 288 285 284 285 284 283 283 280 279 279 277 277 276 272 277 278 274 273 274
286 284 284 278 279 271 282 290 290 287 288 288 288 289 290 290 291 289 290 293 297 295 292 286 285 284 283 284 284 283 282 280 279 277 277 279 275 271 275 271 269 270 270 269
289 284 278 276 276 280 283 285 283 282 283 289 287 289 291 292 290 286 287 286 288 287 284 283 282 282 282 283 283 282 280 279 278 273 272 270 270 269 270 268 269 270 273 273
286 285 279 276 273 266 281 288 292 291 279 290 290 291 291 290 280 285 286 285 284 283 283 282 282 281 282 282 282 279 277 276 274 273 273 274 273 271 270 270 272 273 273 274
279 278 277 277 276 278 287 290 292 279 279 290 291 290 289 283 284 286 284 284 284 283 283 283 281 281 281 282 280 277 276 273 273 277 278 276 280 278 274 274 274 275 275 277
279 278 275 278 276 275 291 290 284 286 291 292 291 289 285 286 284 284 283 283 283 282 283 282 281 280 282 280 279 277 275 276 278 277 278 278 277 281 280 278 277 278 277 274
276 281 277 281 279 288 291 288 291 294 291 292 290 288 286 284 283 283 281 282 282 283 282 283 281 282 282 281 280 276 276 279 279 279 278 276 280 279 276 274 273 274 274 273
286 288 282 284 286 289 291 292 293 292 291 291 290 287 286 284 283 282 281 281 282 283 281 282 282 282 281 282 281 279 280 280 279 279 278 278 277 277 275 274 274 272 271 270
283 287 285 283 287 289 292 293 292 294 293 291 288 286 284 284 283 282 282 282 283 282 283 282 281 281 281 282 281 282 281 281 279 278 277 276 276 275 274 273 272 272 268 270
285 283 281 280 289 289 290 292 293 292 290 288 286 285 285 284 283 283 282 283 284 284 283 282 282 282 282 281 280 281 281 280 278 277 277 276 275 274 273 273 272 276 275 275

GFSCGP_sfc_thetae_144.txt.gz
Theta_e
297 290 288 291 293 294 293 290 289 291 296 292 293 292 295 295 294 294 299 299 299 299 300 300 301 300 299 298 298 297 297 297 297 297 297 298 297 297 298 298 298 298 296 297
292 289 295 296 296 294 293 290 290 294 297 293 290 289 293 294 295 296 298 298 298 298 299 300 299 298 298 296 296 296 296 296 296 296 295 296 296 296 295 296 295 296 294 294
290 293 299 297 295 294 292 290 290 291 293 291 289 288 290 295 296 298 299 300 300 298 298 299 299 297 295 294 294 295 295 295 295 295 294 294 294 294 292 292 292 292 293 292
293 298 296 295 293 294 289 295 294 291 288 283 289 282 288 292 293 295 297 298 298 299 300 299 298 296 294 293 294 294 295 294 294 293 292 291 290 288 289 289 290 290 291 291
291 292 293 292 293 295 291 296 293 291 286 284 285 282 285 290 290 292 295 296 297 299 299 298 298 296 295 293 292 293 294 293 293 291 291 289 288 288 288 288 287 288 289 290
290 294 291 291 295 295 296 292 290 288 285 279 285 284 284 285 289 292 297 297 297 298 299 299 298 297 294 292 291 292 293 292 291 290 289 288 287 286 286 286 285 286 287 288
287 288 292 294 290 293 291 286 279 277 277 278 287 284 285 291 296 297 297 297 298 299 298 295 294 294 293 291 291 292 292 291 290 289 288 288 287 286 285 285 285 285 286 286
281 280 288 292 290 289 288 287 279 276 276 279 287 281 285 297 300 299 299 298 298 297 296 294 294 293 293 292 291 291 291 291 290 289 288 287 287 286 285 285 285 285 285 285
285 284 292 292 294 293 288 285 290 283 283 279 282 285 292 297 298 299 299 299 297 297 296 293 293 293 292 293 291 291 291 291 290 288 288 287 286 286 285 285 285 285 285 286
291 284 292 294 293 293 290 292 283 282 277 275 279 281 282 290 294 298 299 299 300 300 296 295 293 294 294 293 292 292 292 291 290 289 288 287 286 287 286 285 284 284 284 284
290 287 286 292 289 286 288 287 288 286 284 276 275 277 290 291 294 295 297 300 301 300 296 294 294 293 294 294 293 292 291 290 290 289 288 286 286 285 285 284 284 283 283 283
292 288 281 286 291 291 291 287 289 281 280 283 280 280 295 294 295 296 299 301 302 301 297 295 294 294 292 293 292 291 291 290 289 289 287 286 285 284 283 283 282 281 281 282
291 285 278 281 287 289 286 287 287 287 285 281 278 280 292 295 296 297 297 298 301 301 299 295 293 293 293 293 293 293 290 288 287 286 285 284 283 283 281 281 280 280 280 280
294 287 283 278 282 286 283 285 286 284 280 280 281 283 288 290 292 294 297 297 297 300 296 293 292 293 293 293 292 291 287 287 286 285 283 282 282 282 281 281 280 280 279 279
289 281 283 284 285 286 284 284 285 283 284 280 282 282 285 288 289 291 293 296 299 297 294 293 293 292 292 289 288 286 285 285 284 283 281 281 282 281 281 280 280 279 278 278
291 281 284 282 286 286 283 285 284 285 285 285 285 283 288 290 292 294 297 298 297 298 294 293 293 292 289 286 284 284 283 282 283 280 278 278 280 279 278 278 278 278 277 276
286 283 281 279 284 284 279 282 284 285 287 286 281 285 288 288 293 291 291 296 297 297 294 293 292 291 285 284 284 283 283 282 281 279 279 276 275 275 273 277 277 273 270 271
285 283 282 279 280 273 283 288 288 286 288 288 287 286 288 289 288 287 287 289 295 294 293 292 289 284 283 283 283 282 282 281 279 277 276 277 275 273 275 271 269 266 265 263
288 283 279 276 276 279 281 284 283 282 282 286 286 289 290 288 287 285 287 287 287 285 283 282 282 282 284 283 283 281 279 278 277 274 274 274 275 273 273 268 270 268 268 268
286 285 279 275 272 266 279 286 289 289 277 287 289 289 289 288 279 281 286 285 281 281 281 282 283 283 282 282 282 280 278 277 275 276 276 276 274 272 271 269 268 272 273 269
278 277 275 276 273 277 284 287 290 277 279 289 290 290 290 284 284 285 284 283 281 282 282 282 282 281 281 281 280 277 277 275 277 278 278 279 279 277 274 272 270 276 275 273
277 276 275 275 273 272 289 288 282 286 289 290 290 289 288 285 284 284 283 282 282 281 281 281 280 279 278 279 278 276 276 277 279 277 278 278 278 280 277 272 273 272 271 270
273 279 275 280 278 286 289 288 291 291 289 291 290 288 287 284 283 283 282 282 282 282 281 281 280 279 279 279 279 276 277 279 279 279 278 278 277 277 275 271 268 272 272 270
282 286 281 281 284 286 289 291 292 291 290 290 289 286 286 284 283 282 282 282 282 282 281 281 281 280 279 280 279 279 279 280 279 279 278 277 275 274 273 274 273 270 269 269
279 285 282 280 284 287 291 290 293 293 292 290 287 284 284 284 283 282 282 282 282 282 281 281 281 280 280 280 279 280 280 280 279 279 278 277 275 274 272 271 270 270 265 270
282 281 279 277 285 286 287 292 294 291 290 288 285 281 281 284 282 283 282 283 283 281 281 280 281 281 281 280 279 280 280 280 279 277 277 275 274 273 272 272 271 276 275 276

GFSCGP_sfc_thetae_147.txt.gz
Theta_e
295 289 286 289 292 291 290 288 287 289 294 291 291 290 293 292 294 298 297 297 296 296 297 298 298 298 297 296 296 296 296 296 296 296 296 295 293 294 294 295 294 293 293 293
291 288 293 294 294 292 291 288 287 291 295 292 290 289 292 292 295 295 297 297 296 296 297 298 297 297 295 294 295 295 295 294 294 294 294 295 293 293 292 292 292 292 291 291
289 292 297 295 292 291 290 288 288 289 291 289 287 286 289 294 294 294 300 300 299 297 296 297 297 294 292 292 293 293 293 292 293 293 293 293 292 291 289 289 289 290 290 291
292 297 296 294 292 292 287 293 293 291 287 283 288 282 286 290 292 293 294 297 297 297 298 297 296 293 291 291 292 292 292 292 292 291 290 289 287 286 287 287 287 288 289 289
290 291 292 291 292 294 290 295 292 290 286 283 284 282 284 289 288 290 292 296 297 297 297 296 295 293 292 291 291 291 291 291 290 289 289 288 286 286 286 286 286 286 287 288
290 293 291 291 293 293 294 290 288 286 284 279 284 283 284 285 287 291 294 296 297 297 297 296 295 293 291 291 290 291 291 289 289 288 287 286 285 284 284 284 284 285 286 286
286 288 291 292 288 291 290 286 279 277 277 278 286 283 286 290 295 296 295 294 295 297 295 294 292 292 291 292 290 290 290 288 288 287 287 286 285 284 284 283 283 283 283 284
279 279 286 290 289 286 288 287 279 276 277 279 285 279 284 296 297 296 297 295 296 293 294 293 293 291 291 291 290 290 289 288 288 287 286 286 285 284 284 284 283 283 283 283
282 282 290 290 291 291 287 285 290 283 282 278 281 284 291 296 296 295 295 295 292 292 292 292 293 292 293 292 292 291 291 289 289 288 287 285 285 285 284 284 283 283 283 284
289 283 291 292 292 291 290 291 283 281 276 275 278 280 281 289 293 295 294 293 294 294 293 294 294 293 293 292 292 292 292 290 289 288 287 286 286 286 285 284 283 282 282 281
290 286 286 291 287 284 287 286 286 285 281 277 275 278 287 291 295 296 295 296 295 295 295 294 293 293 292 292 291 291 290 289 288 288 287 285 285 285 284 282 281 280 280 279
292 287 281 285 291 290 288 287 287 279 280 281 280 279 292 293 295 296 299 300 299 298 296 294 293 292 291 291 291 290 289 289 289 288 287 286 285 283 282 281 280 281 279 279
292 286 278 281 285 289 285 287 287 286 284 280 279 280 292 293 294 297 296 299 300 299 295 292 291 291 291 291 292 292 291 289 287 287 285 284 283 282 281 280 280 280 280 278
293 287 283 277 281 285 282 285 286 284 279 279 280 282 287 290 292 293 295 297 297 299 295 292 292 293 293 292 292 291 288 287 286 285 284 283 282 282 281 280 279 279 279 278
289 281 283 284 285 285 285 284 284 282 283 279 282 283 286 289 288 289 292 293 295 298 295 293 292 292 293 291 290 287 286 286 284 282 281 281 281 281 280 279 278 278 278 277
290 281 283 281 284 285 283 284 284 285 285 284 284 284 290 291 290 294 295 296 296 296 294 293 293 292 290 288 286 285 284 283 282 280 279 279 280 279 277 277 276 276 275 274
286 283 281 278 283 283 279 282 283 284 286 286 281 286 288 287 290 293 293 295 295 295 293 292 291 290 287 285 285 283 282 282 280 280 279 276 276 275 273 276 275 272 269 270
285 283 282 278 279 272 281 286 286 284 286 288 287 287 288 288 289 289 289 288 291 294 293 291 290 287 285 285 285 283 282 280 280 277 276 278 275 273 274 272 270 269 268 263
288 282 278 275 276 279 281 283 282 282 281 286 285 287 289 288 287 287 288 289 287 286 283 284 285 284 284 283 283 281 280 280 278 275 274 274 275 274 275 274 271 267 267 265
285 284 278 276 272 267 277 285 288 287 276 285 287 289 287 286 279 282 286 286 283 279 278 280 283 284 283 282 281 280 277 277 276 276 276 277 275 274 274 273 271 268 266 265
277 275 274 276 272 277 282 286 288 276 277 286 289 289 288 285 285 284 285 283 282 280 282 283 283 282 282 282 281 278 277 275 276 277 278 278 278 276 274 275 275 273 267 265
276 274 271 271 267 268 287 287 281 283 287 290 289 289 288 285 285 284 283 282 282 281 281 282 281 280 281 281 280 277 276 276 278 279 278 277 276 280 277 275 275 273 267 263
272 277 273 277 276 283 287 285 288 290 289 290 290 289 288 285 284 283 282 282 282 281 281 282 280 279 280 280 279 277 276 279 280 279 278 276 277 277 276 274 272 270 268 266
281 284 279 280 281 284 286 288 288 289 289 290 290 288 285 284 285 283 282 282 282 281 278 281 280 279 278 279 280 279 280 281 280 279 278 277 275 274 274 274 273 271 267 267
279 283 281 278 282 284 286 288 289 290 292 291 289 286 285 285 284 283 283 283 283 282 281 281 280 280 279 279 278 279 280 280 279 279 277 276 275 273 271 270 269 270 263 268
280 280 278 276 282 283 284 288 291 290 291 292 287 281 282 285 284 283 283 283 283 282 282 281 281 280 280 279 279 279 280 280 279 278 277 275 273 272 271 271 270 274 273 275

GFSCGP_sfc_thetae_150.txt.gz
Theta_e
294 288 285 288 290 289 288 286 285 287 292 290 290 289 292 291 293 296 295 295 295 295 296 297 297 297 295 295 295 295 296 296 296 295 294 292 290 291 291 291 291 291 291 291
291 287 291 291 292 291 290 287 286 289 292 291 289 289 292 291 292 297 297 296 295 294 295 296 296 295 293 293 294 294 293 293 293 294 293 292 290 290 289 290 290 290 290 290
289 292 296 293 291 289 288 287 287 288 290 288 286 286 288 293 292 293 298 299 298 296 295 296 295 292 291 291 291 292 291 291 292 292 292 291 290 289 287 287 287 288 289 289
291 296 294 291 290 291 286 292 292 289 286 282 287 282 286 288 291 291 295 295 296 296 296 296 293 290 290 290 291 291 291 290 290 290 288 287 286 284 285 286 286 287 288 288
289 290 292 291 292 293 289 294 291 289 285 283 283 281 283 287 287 290 289 295 295 295 295 294 292 291 290 290 289 289 289 289 288 288 287 286 285 285 285 285 285 286 286 287
290 291 290 291 292 293 293 288 287 285 284 279 284 283 286 284 287 290 292 294 295 294 294 293 292 292 290 289 288 288 288 287 287 287 286 285 284 283 283 283 283 284 284 285
286 288 288 291 287 289 288 285 279 277 276 278 285 282 287 288 294 295 295 293 294 295 293 291 291 290 289 289 288 288 288 287 287 286 285 285 284 284 283 283 283 282 282 282
279 279 285 289 289 287 286 287 280 276 276 277 283 279 283 294 295 295 294 294 294 293 293 292 292 291 291 290 289 290 288 288 288 287 285 286 286 284 285 284 282 283 282 281
280 280 288 288 290 290 285 283 289 283 282 278 279 282 290 295 294 293 292 292 291 292 293 293 292 291 291 291 291 290 289 289 288 287 286 285 285 285 284 284 283 282 281 282
286 280 288 290 290 289 287 290 282 282 278 276 278 279 281 289 291 293 291 290 291 293 293 294 293 292 293 292 292 291 290 288 287 287 286 285 285 284 283 283 281 281 279 280
289 286 284 289 285 283 287 285 285 285 282 277 277 278 285 290 293 293 292 293 292 293 294 295 294 293 293 292 291 290 289 288 288 288 287 286 285 284 283 282 281 280 279 280
292 286 280 285 289 291 289 286 286 281 279 280 279 278 291 292 295 297 296 296 295 295 295 294 293 292 291 291 290 290 288 288 288 288 286 286 285 283 281 281 280 280 279 280
289 286 279 280 283 289 286 286 286 285 283 281 278 280 290 290 292 296 294 296 298 297 295 292 291 290 291 291 291 291 289 289 288 286 284 284 283 282 280 280 280 280 279 278
292 286 282 278 281 285 281 284 285 284 278 278 278 280 285 288 289 291 292 293 294 298 295 291 290 290 291 292 292 291 289 288 287 285 284 283 282 281 280 280 279 279 278 278
287 280 282 284 285 285 283 283 284 282 283 279 281 282 285 289 290 292 293 293 292 296 295 292 291 290 292 292 292 289 287 286 285 284 283 281 281 280 279 278 278 278 278 277
289 280 283 281 284 284 282 284 284 284 284 284 284 283 290 291 292 290 291 292 295 295 297 293 292 292 292 291 288 286 286 284 284 283 281 281 281 279 276 276 276 276 275 274
285 281 279 277 282 283 279 281 283 284 286 285 280 285 289 287 288 288 290 293 295 294 294 293 292 292 292 289 287 285 284 284 283 281 280 277 276 274 272 275 274 271 269 272
284 283 281 279 280 273 281 285 286 284 285 286 287 287 288 287 288 288 290 290 290 291 293 291 290 288 288 287 287 285 284 282 281 278 277 278 275 272 273 270 268 267 265 263
287 283 279 276 276 279 281 283 282 281 281 285 285 286 287 288 287 287 289 288 286 286 283 286 287 285 286 285 284 283 281 280 278 275 274 274 274 273 273 271 269 267 265 265
285 284 280 276 272 268 279 284 287 285 276 284 285 285 287 286 280 284 287 285 283 281 281 284 285 285 285 283 283 281 278 278 276 276 274 275 276 275 273 271 269 264 263 262
279 277 277 277 273 278 283 285 287 276 277 286 288 287 287 284 286 284 283 282 281 281 283 285 285 283 283 283 282 280 278 277 276 275 277 277 278 276 274 271 270 267 264 263
277 275 272 272 266 268 285 285 280 282 284 286 287 288 287 286 285 285 285 283 282 282 283 283 282 281 282 282 280 278 277 276 277 277 277 277 277 278 277 274 272 267 264 263
274 278 274 276 275 282 284 283 286 288 286 287 287 288 288 284 285 285 283 282 282 282 281 282 281 280 281 281 280 278 277 279 279 279 278 277 279 278 277 275 272 269 267 265
280 282 277 279 281 282 284 286 288 288 287 288 288 288 286 283 285 284 283 282 281 281 280 280 280 279 279 280 281 279 279 280 279 279 278 278 276 276 276 275 272 269 266 265
279 282 280 279 281 282 284 287 288 288 289 289 288 287 284 281 285 284 283 283 282 281 278 281 280 280 279 280 279 280 280 280 279 279 278 277 276 275 273 272 271 270 262 268
280 280 277 275 282 281 280 285 288 287 287 288 288 283 284 284 284 284 283 284 283 282 281 281 281 280 279 279 279 280 280 281 280 278 277 275 274 273 271 271 270 274 273 275

GFSCGP_sfc_thetae_153.txt.gz
Theta_e
297 293 290 293 294 292 290 289 289 293 296 296 295 295 298 299 301 303 303 303 304 305 304 304 303 303 302 303 304 305 305 304 304 303 301 300 297 296 296 296 296 296 296 297
295 290 295 293 294 293 292 290 290 293 295 295 295 295 298 297 299 303 304 304 305 304 302 301 301 301 302 301 302 303 303 303 303 303 300 299 297 295 295 295 295 295 295 295
294 296 297 294 292 290 291 289 290 290 294 295 293 292 294 298 299 300 304 306 306 304 302 300 300 300 300 299 300 300 301 301 302 300 298 297 296 296 295 294 293 293 294 293
294 298 295 293 291 293 288 293 293 291 291 287 292 287 293 295 296 296 300 302 304 304 302 301 299 298 298 298 298 298 298 299 299 299 298 298 297 294 293 292 293 292 292 292
292 294 293 292 293 294 292 296 294 293 291 289 290 287 292 293 293 296 296 301 302 302 302 300 299 298 298 297 297 297 297 297 297 297 297 296 294 293 293 292 291 292 292 291
294 295 296 296 296 297 295 292 290 289 289 284 289 289 290 294 295 295 296 299 300 300 300 300 299 298 297 296 296 296 296 295 296 296 295 295 294 292 291 291 290 290 290 290
292 292 293 294 292 293 292 290 284 282 282 282 290 288 291 293 297 298 299 299 299 300 299 298 296 296 296 295 295 295 296 294 294 294 293 293 292 291 291 290 289 289 288 288
284 284 290 293 293 292 291 289 286 279 280 284 286 284 290 297 298 297 297 299 299 298 298 298 297 297 296 295 294 294 293 291 291 292 291 291 291 290 290 289 288 288 287 286
283 282 289 290 292 294 290 286 292 286 285 282 286 288 293 297 297 296 295 296 296 297 297 297 298 298 296 295 293 293 293 291 291 291 289 289 290 289 288 288 288 287 287 285
288 282 289 291 291 292 291 292 285 286 278 277 283 284 287 293 296 296 295 295 297 297 297 298 298 297 296 295 295 295 293 291 291 290 290 289 289 288 288 288 286 285 285 285
291 288 286 291 288 287 288 286 288 288 286 280 279 284 291 292 296 297 297 297 297 298 298 299 299 297 296 295 293 292 291 290 290 290 290 288 288 288 287 286 285 284 284 284
292 288 283 286 290 292 289 286 286 283 281 284 284 284 292 293 297 295 296 299 299 298 299 299 297 295 294 294 293 291 291 290 291 290 288 288 287 285 286 285 284 284 283 284
290 287 282 281 286 290 286 287 287 286 284 282 280 283 292 292 293 295 295 296 296 301 298 298 296 294 293 293 293 292 292 292 291 290 288 287 286 286 284 284 283 283 283 283
293 286 283 279 282 284 281 284 285 284 279 279 280 282 288 291 291 293 294 295 296 297 299 297 295 295 295 294 294 293 292 291 290 288 286 284 285 284 283 283 283 282 282 282
290 281 283 284 285 285 284 283 284 283 283 280 283 283 287 290 291 292 294 295 294 295 297 297 296 295 295 294 294 293 292 291 288 286 285 284 283 284 283 282 282 282 282 282
291 282 284 282 285 285 283 285 285 285 285 284 285 284 291 292 293 293 294 294 294 294 295 298 296 294 293 293 293 290 290 288 287 285 283 284 284 283 281 281 280 281 280 280
287 285 282 278 283 283 279 283 284 285 287 286 282 288 292 290 291 292 293 293 293 295 298 297 295 294 294 294 291 290 289 287 285 284 283 283 282 279 278 279 279 278 278 279
286 284 283 279 281 273 284 288 289 286 287 289 288 289 291 292 293 292 294 294 294 295 296 296 295 294 295 292 291 289 287 285 284 282 281 282 280 276 277 275 274 275 276 275
290 286 281 278 277 281 283 286 285 284 284 289 288 289 290 291 292 293 293 294 293 290 286 288 292 292 290 290 288 285 284 283 281 280 281 279 277 276 275 273 274 275 275 275
288 287 283 279 275 272 283 287 289 288 280 288 288 289 288 290 286 293 291 290 288 286 285 286 287 289 288 286 286 284 282 281 279 279 279 278 277 275 274 275 274 274 275 275
281 281 279 279 277 280 286 288 289 278 280 289 291 291 290 290 293 289 286 285 285 285 286 288 286 285 285 286 285 283 281 280 281 280 279 279 279 276 276 276 276 274 274 274
280 279 279 279 277 274 288 287 283 288 289 291 291 292 292 293 288 286 286 286 285 285 286 286 285 284 284 284 284 282 280 280 280 280 279 279 279 279 278 275 274 274 273 273
280 284 280 282 282 288 288 290 291 291 291 292 292 293 292 289 287 286 286 285 285 285 285 285 284 282 283 283 282 280 279 281 281 280 279 279 280 279 278 276 274 274 274 274
283 284 283 281 285 285 287 290 292 293 292 293 293 292 292 287 286 286 286 285 284 284 284 284 282 281 281 282 282 282 281 282 281 280 280 280 280 279 278 278 276 275 274 274
285 284 283 283 284 286 287 289 291 292 292 292 293 293 291 289 287 287 286 285 284 284 283 283 283 282 281 282 282 282 282 282 281 280 280 279 279 278 277 277 276 275 275 276
285 284 282 283 287 288 288 289 291 291 291 292 291 289 288 290 288 288 286 286 285 283 282 282 283 282 282 281 281 282 282 282 281 279 279 279 278 277 276 276 275 274 274 275

GFSCGP_sfc_thetae_156.txt.gz
Theta_e
302 299 298 302 302 302 299 296 295 299 301 298 298 299 302 306 306 307 309 311 314 315 317 314 313 312 312 314 316 315 314 314 313 311 310 308 305 305 304 304 304 304 304 305
299 297 304 305 301 299 297 296 296 300 301 299 298 298 302 304 305 307 309 310 312 314 314 311 311 311 311 312 314 314 314 313 313 312 311 309 305 304 304 303 303 303 303 302
300 304 302 301 299 296 298 297 298 297 300 300 298 296 300 303 305 306 308 311 312 313 313 310 309 309 310 310 311 312 313 312 311 310 308 305 304 303 302 302 301 301 301 301
301 305 303 300 298 300 297 301 298 296 295 293 298 291 300 302 302 303 305 308 311 313 314 311 309 308 309 309 311 311 311 311 309 309 308 306 304 302 302 301 301 300 300 299
299 298 299 298 300 301 297 299 297 297 295 295 296 292 297 300 299 302 305 307 310 312 314 311 309 309 309 309 309 309 309 308 308 309 309 306 304 303 301 300 300 300 299 298
300 305 300 300 301 301 300 298 296 296 295 289 295 294 295 300 301 302 302 304 308 310 312 311 310 309 307 307 307 307 307 306 307 307 306 305 303 301 300 300 299 298 297 296
297 298 301 300 297 300 298 295 289 287 287 287 296 293 296 300 300 302 302 304 307 309 309 309 307 306 305 304 305 304 304 303 304 303 303 303 302 301 300 299 298 296 295 294
292 290 298 300 297 296 296 296 290 282 286 290 296 289 297 302 303 303 303 305 306 306 308 307 307 306 305 304 302 302 302 300 300 300 300 300 300 299 297 296 295 292 291 292
289 289 294 293 298 298 294 292 297 290 292 287 292 296 298 301 301 302 302 303 303 305 305 306 306 306 305 304 302 302 301 299 299 299 298 297 297 296 295 294 293 292 291 290
293 286 292 294 295 295 295 295 288 289 281 280 288 290 292 296 298 301 301 302 303 304 304 305 306 306 306 305 303 301 301 299 298 297 296 295 295 294 294 293 291 291 290 290
294 291 290 293 291 290 290 289 290 290 289 283 283 288 296 297 300 300 301 303 303 304 304 305 305 306 305 304 302 300 298 296 295 295 294 294 294 294 293 291 290 290 290 290
295 292 287 289 294 295 294 290 290 285 284 287 287 287 297 298 298 299 299 300 302 303 304 306 305 304 302 301 299 296 295 295 295 295 294 293 292 292 291 291 290 291 289 289
294 291 286 286 290 293 289 290 290 290 288 286 284 287 296 296 297 299 298 300 301 301 303 303 303 300 300 299 297 296 295 295 295 294 294 293 292 292 290 290 289 289 289 288
295 288 284 282 284 287 283 286 287 286 283 283 284 285 291 292 293 296 297 299 300 300 299 302 302 300 299 299 299 297 296 297 296 295 294 290 289 289 291 289 288 288 288 288
293 286 287 287 287 287 286 285 286 284 286 282 286 286 290 292 294 296 297 297 297 297 299 300 302 302 301 299 299 299 299 297 296 295 291 288 287 288 289 288 287 287 287 287
294 285 287 285 287 287 285 287 287 287 288 287 287 287 293 296 296 296 296 296 296 297 298 300 300 303 303 301 300 299 297 295 295 290 287 286 286 286 287 287 286 286 286 286
290 288 285 280 285 284 281 286 287 288 290 289 285 290 294 293 294 295 296 297 297 297 298 300 302 301 301 300 299 297 296 295 291 287 285 285 284 284 284 284 285 284 283 284
289 288 287 282 283 275 286 291 291 289 290 291 291 292 293 294 296 297 298 296 296 298 298 300 302 301 300 300 298 297 295 292 288 285 284 284 283 282 282 282 281 281 282 281
291 288 283 280 280 283 286 289 288 286 286 292 291 292 293 294 295 294 297 298 297 295 289 292 297 300 299 297 296 293 290 288 286 284 283 283 282 281 280 278 279 281 281 281
291 290 286 282 277 275 286 290 292 291 282 291 291 291 292 293 288 293 297 296 295 292 290 288 293 296 294 293 292 287 285 285 284 283 283 282 281 280 278 280 280 281 282 281
285 286 282 282 280 283 290 292 293 280 284 291 292 293 294 293 295 296 293 290 290 289 289 292 290 287 288 290 288 285 284 284 284 283 282 282 281 279 280 280 281 280 281 280
283 282 282 283 280 277 292 291 285 291 294 294 295 296 295 296 294 287 287 288 290 290 291 292 290 287 286 287 287 284 283 284 283 282 282 281 280 281 281 280 280 280 279 278
283 287 286 286 286 292 295 293 296 297 293 295 295 296 295 296 288 286 288 288 288 290 292 291 290 288 287 287 286 284 282 283 283 283 282 281 281 281 281 280 279 280 279 279
289 291 287 288 290 291 293 295 296 297 295 296 298 296 296 288 288 286 288 289 290 291 290 290 288 286 284 285 285 283 282 283 283 283 283 282 282 280 281 281 280 280 279 279
290 290 288 288 290 290 291 293 295 296 298 297 297 296 297 296 294 292 290 291 292 291 290 289 287 285 284 284 284 284 285 284 284 283 282 282 282 280 280 280 280 280 281 280
291 289 287 286 292 291 292 295 296 295 295 296 295 295 297 298 296 296 291 292 292 289 289 288 287 286 285 285 285 286 286 285 284 282 282 282 281 281 280 279 278 277 278 276

GFSCGP_sfc_thetae_159.txt.gz
Theta_e
305 302 300 305 307 305 304 302 300 304 307 302 302 303 304 307 307 307 309 310 312 316 322 325 323 321 320 321 322 320 319 318 317 315 313 312 309 308 308 309 309 309 309 309
305 299 306 308 307 305 303 301 301 305 307 305 303 302 306 307 307 308 308 309 311 314 319 321 319 318 317 318 320 319 318 317 317 316 315 313 310 309 308 308 307 307 307 307
303 305 309 307 305 303 302 301 302 301 305 306 303 301 304 307 309 309 309 310 312 313 316 319 316 315 316 316 318 318 317 317 317 317 314 311 309 307 306 306 305 305 305 305
305 310 307 305 304 304 300 306 304 302 299 295 305 294 302 306 307 308 308 309 310 313 316 318 315 314 315 316 318 318 317 317 316 314 312 309 306 304 307 306 305 304 304 304
302 304 302 302 303 307 302 306 302 302 299 299 299 296 301 306 303 307 307 309 310 313 315 317 315 314 315 316 315 316 316 315 314 313 313 310 308 308 306 305 304 304 303 302
303 309 305 304 305 305 306 302 301 301 299 292 298 298 298 302 304 306 308 308 309 311 314 317 317 315 314 315 314 315 314 313 313 312 312 310 308 306 304 304 303 302 301 300
301 302 305 305 300 303 301 298 292 291 290 290 300 298 300 303 304 305 305 307 309 311 313 315 315 313 312 312 312 312 312 310 311 310 309 308 307 306 305 304 302 300 298 297
295 293 301 305 300 299 299 298 292 285 288 292 299 294 299 304 306 307 307 308 309 310 311 313 314 313 311 310 309 308 308 307 307 307 306 306 305 303 302 300 299 298 296 294
294 293 299 301 304 302 298 295 300 293 294 288 293 298 301 303 304 305 305 306 307 308 309 310 312 311 310 308 307 307 306 304 304 304 303 303 303 301 299 298 297 294 294 293
296 290 297 297 297 300 299 299 292 292 283 282 290 292 292 297 301 303 303 305 306 307 307 309 310 310 310 309 308 308 307 303 303 302 302 300 299 299 297 295 294 293 293 293
298 295 293 296 294 293 294 293 293 294 292 285 284 289 298 298 301 301 303 304 304 306 307 308 309 310 310 309 308 306 304 302 301 300 299 298 296 295 294 293 293 293 293 293
298 294 289 292 297 298 297 295 294 289 286 289 288 289 301 299 300 301 301 302 303 304 305 309 309 309 308 307 306 304 302 299 299 298 296 295 295 294 293 292 293 293 292 292
297 291 286 288 293 296 293 294 294 294 292 288 285 288 299 299 299 300 300 302 303 303 303 306 308 308 307 306 304 300 298 297 296 296 295 294 293 294 293 293 293 293 292 291
297 291 288 284 284 287 286 287 289 288 285 286 287 289 293 295 295 297 299 301 302 303 302 303 305 305 305 304 302 298 297 297 297 295 294 293 292 293 293 292 292 291 291 291
295 288 290 291 291 290 288 288 289 287 288 283 287 287 292 294 295 297 299 299 300 300 302 302 303 305 305 304 302 300 298 298 298 295 293 292 292 292 290 290 291 290 290 290
295 288 289 287 290 290 287 289 289 289 289 289 289 288 295 297 298 297 298 298 298 299 300 301 302 304 305 304 303 303 301 299 299 294 292 288 288 288 289 289 289 289 289 289
291 290 287 283 289 288 283 288 289 290 291 290 286 291 296 295 295 296 297 298 298 299 299 299 301 302 304 306 305 303 302 300 297 295 288 286 287 286 286 287 287 288 287 287
291 290 289 284 286 277 288 294 293 290 291 293 292 294 295 295 296 297 299 298 298 300 300 302 304 305 305 306 305 305 301 297 293 288 285 286 285 284 284 285 284 285 284 284
294 290 285 282 282 285 287 291 290 288 288 294 292 294 295 296 296 296 300 300 300 300 291 295 300 303 304 303 302 299 296 292 289 285 284 284 284 283 283 282 282 283 283 283
292 292 287 284 279 277 288 293 294 294 284 294 294 293 293 295 289 294 300 300 299 298 294 289 294 300 300 299 299 293 288 287 285 285 285 284 283 283 281 283 283 283 284 282
286 287 283 283 281 285 292 294 295 282 285 293 293 293 293 292 295 300 299 296 297 294 294 297 291 290 292 298 294 288 286 285 286 285 284 282 283 281 282 282 283 283 282 282
285 283 284 285 282 279 295 293 288 293 296 296 294 295 295 297 295 289 291 292 295 297 297 297 295 291 289 293 290 286 286 286 285 283 282 282 281 282 282 282 282 282 282 281
283 288 287 288 287 294 297 295 298 298 296 296 295 296 297 298 291 288 290 291 293 296 298 298 296 291 290 290 289 285 285 284 283 282 282 282 282 282 283 282 281 281 281 281
290 293 289 289 292 293 296 297 298 298 297 297 297 297 298 289 288 288 290 292 294 297 297 297 295 290 288 289 287 287 284 284 283 282 282 282 282 282 282 283 282 282 282 281
289 289 290 290 292 293 295 297 298 297 298 297 298 298 297 298 297 296 294 296 297 298 297 296 294 291 289 288 286 284 284 284 283 283 282 282 283 281 282 283 282 282 284 282
290 288 287 288 294 294 295 298 298 297 297 297 298 297 298 297 296 299 298 298 298 298 296 293 293 291 288 286 285 284 285 285 285 284 283 283 282 282 282 281 280 280 280 278

GFSCGP_sfc_thetae_162.txt.gz
Theta_e
305 299 297 302 305 305 303 302 301 304 307 305 303 303 304 307 308 307 308 310 311 311 316 324 326 325 323 324 321 320 319 319 316 313 311 309 307 307 307 307 309 308 308 309
302 297 303 306 306 305 304 301 300 304 307 305 304 303 306 307 308 309 307 308 309 311 315 322 321 320 319 321 320 318 317 316 316 314 312 310 308 307 307 307 307 307 306 307
300 303 307 305 303 302 303 300 300 300 304 306 304 301 304 307 309 310 310 310 310 311 312 321 318 317 318 318 319 318 317 316 316 315 313 309 308 305 304 304 303 304 305 305
303 307 306 305 303 304 299 305 304 302 300 295 303 293 301 305 306 308 309 310 310 311 313 320 317 316 315 317 320 318 317 316 316 314 310 306 303 302 304 304 302 302 303 303
300 303 304 302 304 307 302 307 304 303 299 298 298 294 299 305 303 306 309 310 311 311 312 318 316 315 315 316 318 318 317 316 315 313 311 308 305 306 304 303 302 301 301 301
303 309 306 305 307 306 307 304 303 302 298 290 296 295 296 299 302 305 309 309 311 311 313 317 316 315 313 315 315 316 316 314 313 312 313 309 307 304 302 301 301 300 299 298
301 302 306 307 301 304 302 298 291 289 288 288 298 296 298 302 304 305 306 307 309 312 313 314 313 312 312 312 313 313 314 312 311 311 311 310 306 304 303 302 301 298 296 295
294 293 301 306 303 299 299 297 291 284 286 290 298 293 296 303 305 307 307 308 310 310 312 313 313 313 312 312 311 311 310 309 309 309 307 307 305 304 303 301 299 297 295 294
293 294 302 302 305 303 298 294 300 293 294 289 292 297 300 304 303 305 305 306 307 308 308 309 312 313 311 310 310 309 308 308 306 306 305 304 303 302 300 299 297 295 294 294
297 290 299 299 300 300 299 301 292 293 283 283 289 292 291 297 301 303 303 304 305 307 307 308 309 310 310 309 308 308 307 304 304 304 303 302 301 300 298 296 293 293 292 293
297 294 293 298 294 292 294 293 295 294 291 284 283 288 299 298 301 301 301 302 303 306 307 308 309 310 309 308 307 306 306 303 302 302 300 299 297 296 295 294 293 292 293 293
297 294 289 292 299 300 297 294 294 287 286 289 289 289 300 300 300 301 300 302 303 304 305 308 309 310 309 308 306 305 303 301 300 300 298 296 295 294 293 292 292 293 291 292
297 292 284 286 291 296 292 293 293 292 292 287 284 287 299 300 299 300 299 300 302 304 304 305 307 308 307 305 303 303 301 299 298 296 296 294 294 293 292 292 292 293 292 290
297 292 288 282 286 288 286 288 290 288 283 285 287 289 293 296 297 297 298 300 301 303 303 303 305 306 307 306 304 301 297 297 296 295 295 293 292 293 292 292 291 291 291 289
295 287 290 290 291 290 289 288 289 286 287 283 287 287 292 294 295 297 299 299 299 300 301 302 302 304 305 305 301 299 297 297 297 295 293 292 292 292 291 290 289 290 290 290
295 287 289 287 290 291 288 290 290 290 290 289 289 288 296 297 297 297 298 298 297 299 300 301 302 303 304 304 303 301 299 298 297 294 293 291 291 289 288 287 287 288 289 288
292 289 286 282 288 287 283 288 289 290 291 290 286 291 296 295 295 296 297 298 298 299 300 300 302 302 304 305 304 302 300 298 297 294 290 287 286 286 286 286 287 286 287 286
292 290 288 283 286 276 288 294 294 291 292 293 293 293 295 296 297 297 299 298 300 301 301 302 303 305 306 306 306 304 303 298 294 288 286 286 286 285 285 285 284 284 284 283
295 291 285 282 281 285 288 292 290 289 288 294 292 293 294 295 296 296 300 301 301 299 290 296 300 302 304 303 302 299 297 294 288 285 286 285 285 284 284 283 283 283 283 282
293 294 287 284 279 277 287 293 296 295 282 294 295 294 294 294 289 296 300 300 300 298 294 288 290 300 302 299 299 293 289 287 286 285 285 285 284 284 282 282 282 283 282 281
286 286 283 283 281 285 292 294 296 282 285 294 295 294 294 293 297 300 300 298 300 294 294 298 291 288 292 299 297 290 287 286 286 286 285 284 284 283 283 282 283 282 282 281
284 282 283 284 281 278 295 294 286 292 298 296 296 296 297 297 292 289 290 292 297 297 298 297 297 292 289 291 290 287 287 286 286 285 283 283 282 282 282 282 282 282 281 280
282 287 285 287 286 295 297 296 299 300 297 297 297 297 297 298 289 289 287 290 294 297 298 299 298 292 291 291 289 286 285 285 284 283 282 281 281 282 282 281 281 281 281 279
289 293 288 288 291 291 295 297 299 298 297 298 299 297 299 288 287 288 290 291 294 296 297 298 297 292 289 290 288 287 285 284 283 281 281 281 281 281 282 282 282 281 280 280
286 287 287 288 291 292 294 294 297 297 298 297 298 298 299 298 295 293 293 295 296 297 298 298 296 293 291 290 288 285 285 284 282 281 281 281 282 281 281 282 281 281 283 282
285 284 282 284 291 290 294 298 299 297 296 297 297 297 299 298 298 298 297 298 298 298 298 296 295 294 291 289 286 285 285 284 283 282 282 282 282 281 281 281 279 283 280 281